Time,TemperatureF,DewpointF,PressureIn,WindDirection,WindDirectionDegrees,WindSpeedMPH,WindSpeedGustMPH,Humidity,HourlyPrecipIn,Conditions,Clouds,dailyrainin,SoftwareType,DateUTC
2013-07-06 00:01:00,70.9,22.5,30.42,WSW,248,2.0,4.0,16,0.00,,,0.01,meteohub,2013-07-06 04:01:00,
2013-07-06 00:02:00,70.9,22.5,30.42,WSW,248,2.0,4.0,16,0.00,,,0.01,meteohub,2013-07-06 04:02:00,
2013-07-06 00:06:00,70.9,22.5,30.42,WSW,248,2.0,4.0,16,0.00,,,0.00,meteohub,2013-07-06 04:06:00,
2013-07-06 00:07:00,70.9,22.5,30.42,WSW,248,2.0,4.0,16,0.00,,,0.00,meteohub,2013-07-06 04:07:00,
2013-07-06 00:08:00,70.7,22.3,30.42,SE,135,2.0,4.0,16,0.00,,,0.00,meteohub,2013-07-06 04:08:00,
2013-07-06 00:12:00,70.7,22.3,30.42,South,180,2.0,4.0,16,0.00,,,0.00,meteohub,2013-07-06 04:12:00,
2013-07-06 00:13:00,70.7,22.3,30.42,South,180,2.0,4.0,16,0.00,,,0.00,meteohub,2013-07-06 04:13:00,
2013-07-06 00:17:00,70.5,22.1,30.42,South,180,1.0,2.0,16,0.00,,,0.00,meteohub,2013-07-06 04:17:00,
2013-07-06 00:18:00,70.7,22.3,30.43,South,180,2.0,2.0,16,0.00,,,0.00,meteohub,2013-07-06 04:18:00,
2013-07-06 00:19:00,70.7,22.3,30.43,South,180,2.0,2.0,16,0.00,,,0.00,meteohub,2013-07-06 04:19:00,
2013-07-06 00:20:00,70.7,23.7,30.42,South,180,2.0,2.0,17,0.00,,,0.00,meteohub,2013-07-06 04:20:00,
2013-07-06 00:22:00,70.7,23.7,30.42,SE,135,2.0,3.0,17,0.00,,,0.00,meteohub,2013-07-06 04:22:00,
2013-07-06 00:23:00,70.5,23.5,30.42,SE,135,2.0,3.0,17,0.00,,,0.00,meteohub,2013-07-06 04:23:00,
2013-07-06 00:24:00,70.5,23.5,30.42,SE,135,2.0,3.0,17,0.00,,,0.00,meteohub,2013-07-06 04:24:00,
2013-07-06 00:25:00,70.5,23.5,30.42,SE,135,2.0,3.0,17,0.00,,,0.00,meteohub,2013-07-06 04:25:00,
2013-07-06 00:26:00,70.5,23.5,30.42,SE,135,2.0,3.0,17,0.00,,,0.00,meteohub,2013-07-06 04:26:00,
2013-07-06 00:27:00,70.5,23.5,30.42,South,180,1.0,3.0,17,0.00,,,0.00,meteohub,2013-07-06 04:27:00,
2013-07-06 00:29:00,70.5,23.5,30.42,SE,135,2.0,3.0,17,0.00,,,0.00,meteohub,2013-07-06 04:29:00,
2013-07-06 00:30:00,70.5,23.5,30.42,SE,135,3.0,3.0,17,0.00,,,0.00,meteohub,2013-07-06 04:30:00,
2013-07-06 00:31:00,70.5,23.5,30.42,SE,135,4.0,4.0,17,0.00,,,0.00,meteohub,2013-07-06 04:31:00,
2013-07-06 00:34:00,70.7,23.7,30.42,East,90,2.0,3.0,17,0.00,,,0.00,meteohub,2013-07-06 04:34:00,
2013-07-06 00:35:00,70.5,23.5,30.42,South,180,2.0,4.0,17,0.00,,,0.00,meteohub,2013-07-06 04:35:00,
2013-07-06 00:36:00,70.5,23.5,30.42,South,180,2.0,4.0,17,0.00,,,0.00,meteohub,2013-07-06 04:36:00,
2013-07-06 00:37:00,70.5,23.5,30.42,South,180,2.0,4.0,17,0.00,,,0.00,meteohub,2013-07-06 04:37:00,
2013-07-06 00:41:00,70.5,23.5,30.42,South,180,1.0,4.0,17,0.00,,,0.00,meteohub,2013-07-06 04:41:00,
2013-07-06 00:42:00,70.5,23.5,30.42,South,180,1.0,4.0,17,0.00,,,0.00,meteohub,2013-07-06 04:42:00,
2013-07-06 00:43:00,70.5,23.5,30.42,South,180,3.0,4.0,17,0.00,,,0.00,meteohub,2013-07-06 04:43:00,
2013-07-06 00:44:00,70.3,23.5,30.43,South,180,2.0,4.0,17,0.00,,,0.00,meteohub,2013-07-06 04:44:00,
2013-07-06 00:46:00,70.3,23.5,30.42,South,180,0.0,4.0,17,0.00,,,0.00,meteohub,2013-07-06 04:46:00,
2013-07-06 00:47:00,70.3,23.5,30.43,WSW,248,2.0,4.0,17,0.00,,,0.00,meteohub,2013-07-06 04:47:00,
2013-07-06 00:48:00,70.3,24.8,30.43,South,180,2.0,4.0,18,0.00,,,0.00,meteohub,2013-07-06 04:48:00,
2013-07-06 00:49:00,70.3,23.5,30.43,East,90,2.0,4.0,17,0.00,,,0.00,meteohub,2013-07-06 04:49:00,
2013-07-06 00:50:00,70.3,23.5,30.43,East,90,2.0,4.0,17,0.00,,,0.00,meteohub,2013-07-06 04:50:00,
2013-07-06 00:52:00,70.3,24.8,30.43,South,180,0.0,3.0,18,0.00,,,0.00,meteohub,2013-07-06 04:52:00,
2013-07-06 00:53:00,70.3,24.8,30.43,South,180,2.0,3.0,18,0.00,,,0.00,meteohub,2013-07-06 04:53:00,
2013-07-06 00:54:00,70.3,24.8,30.43,SE,135,2.0,3.0,18,0.00,,,0.00,meteohub,2013-07-06 04:54:00,
2013-07-06 00:55:00,70.3,26.1,30.43,South,180,3.0,3.0,19,0.00,,,0.00,meteohub,2013-07-06 04:55:00,
2013-07-06 00:57:00,70.3,26.1,30.43,South,180,2.0,3.0,19,0.00,,,0.00,meteohub,2013-07-06 04:57:00,
2013-07-06 00:58:00,70.3,26.1,30.43,South,180,2.0,3.0,19,0.00,,,0.00,meteohub,2013-07-06 04:58:00,
2013-07-06 00:59:00,70.3,26.1,30.43,SSE,158,4.0,4.0,19,0.00,,,0.00,meteohub,2013-07-06 04:59:00,
2013-07-06 01:00:00,70.3,26.1,30.43,SSE,158,4.0,4.0,19,0.00,,,0.00,meteohub,2013-07-06 05:00:00,
2013-07-06 01:02:00,70.3,26.1,30.43,SE,135,1.0,3.0,19,0.00,,,0.00,meteohub,2013-07-06 05:02:00,
2013-07-06 01:04:00,70.2,24.6,30.42,SE,135,0.0,3.0,18,0.00,,,0.00,meteohub,2013-07-06 05:04:00,
2013-07-06 01:05:00,70.2,24.6,30.42,East,90,1.0,4.0,18,0.00,,,0.00,meteohub,2013-07-06 05:05:00,
2013-07-06 01:07:00,70.2,24.6,30.42,South,180,1.0,4.0,18,0.00,,,0.00,meteohub,2013-07-06 05:07:00,
2013-07-06 01:09:00,70.0,25.9,30.42,SE,135,0.0,4.0,19,0.00,,,0.00,meteohub,2013-07-06 05:09:00,
2013-07-06 01:10:00,70.0,25.9,30.42,SE,135,0.0,4.0,19,0.00,,,0.00,meteohub,2013-07-06 05:10:00,
2013-07-06 01:11:00,70.0,25.9,30.42,South,180,0.0,4.0,19,0.00,,,0.00,meteohub,2013-07-06 05:11:00,
2013-07-06 01:12:00,69.8,27.0,30.42,South,180,0.0,4.0,20,0.00,,,0.00,meteohub,2013-07-06 05:12:00,
2013-07-06 01:15:00,69.8,27.0,30.42,South,180,0.0,4.0,20,0.00,,,0.00,meteohub,2013-07-06 05:15:00,
2013-07-06 01:16:00,69.8,27.0,30.42,South,180,0.0,4.0,20,0.00,,,0.00,meteohub,2013-07-06 05:16:00,
2013-07-06 01:17:00,69.6,26.8,30.42,South,180,0.0,4.0,20,0.00,,,0.00,meteohub,2013-07-06 05:17:00,
2013-07-06 01:18:00,69.6,26.8,30.41,South,180,0.0,4.0,20,0.00,,,0.00,meteohub,2013-07-06 05:18:00,
2013-07-06 01:21:00,69.4,27.9,30.41,South,180,0.0,1.0,21,0.00,,,0.00,meteohub,2013-07-06 05:21:00,
2013-07-06 01:22:00,69.4,27.9,30.42,South,180,0.0,1.0,21,0.00,,,0.00,meteohub,2013-07-06 05:22:00,
2013-07-06 01:23:00,69.4,27.9,30.42,South,180,0.0,1.0,21,0.00,,,0.00,meteohub,2013-07-06 05:23:00,
2013-07-06 01:24:00,69.4,27.9,30.42,South,180,0.0,1.0,21,0.00,,,0.00,meteohub,2013-07-06 05:24:00,
2013-07-06 01:27:00,69.3,27.7,30.42,South,180,0.0,0.0,21,0.00,,,0.00,meteohub,2013-07-06 05:27:00,
2013-07-06 01:28:00,69.3,28.8,30.42,South,180,0.0,0.0,22,0.00,,,0.00,meteohub,2013-07-06 05:28:00,
2013-07-06 01:30:00,69.3,28.8,30.42,South,180,0.0,0.0,22,0.00,,,0.00,meteohub,2013-07-06 05:30:00,
2013-07-06 01:32:00,69.1,29.7,30.42,South,180,0.0,0.0,23,0.00,,,0.00,meteohub,2013-07-06 05:32:00,
2013-07-06 01:33:00,69.1,29.7,30.42,South,180,0.0,0.0,23,0.00,,,0.00,meteohub,2013-07-06 05:33:00,
2013-07-06 01:35:00,69.1,29.7,30.42,South,180,0.0,0.0,23,0.00,,,0.00,meteohub,2013-07-06 05:35:00,
2013-07-06 01:37:00,69.1,30.7,30.42,South,180,0.0,0.0,24,0.00,,,0.00,meteohub,2013-07-06 05:37:00,
2013-07-06 01:38:00,69.1,30.7,30.42,SE,135,0.0,0.0,24,0.00,,,0.00,meteohub,2013-07-06 05:38:00,
2013-07-06 01:40:00,69.1,30.7,30.42,South,180,0.0,0.0,24,0.00,,,0.00,meteohub,2013-07-06 05:40:00,
2013-07-06 01:42:00,69.1,30.7,30.42,South,180,1.0,0.0,24,0.00,,,0.00,meteohub,2013-07-06 05:42:00,
2013-07-06 01:43:00,69.1,31.8,30.42,South,180,1.0,0.0,25,0.00,,,0.00,meteohub,2013-07-06 05:43:00,
2013-07-06 01:44:00,69.1,31.8,30.42,South,180,0.0,0.0,25,0.00,,,0.00,meteohub,2013-07-06 05:44:00,
2013-07-06 01:45:00,69.1,31.8,30.42,South,180,1.0,1.0,25,0.00,,,0.00,meteohub,2013-07-06 05:45:00,
2013-07-06 01:46:00,69.1,31.8,30.42,South,180,1.0,1.0,25,0.00,,,0.00,meteohub,2013-07-06 05:46:00,
2013-07-06 01:48:00,69.1,31.8,30.43,South,180,2.0,2.0,25,0.00,,,0.00,meteohub,2013-07-06 05:48:00,
2013-07-06 01:49:00,69.1,32.7,30.43,South,180,2.0,2.0,26,0.00,,,0.00,meteohub,2013-07-06 05:49:00,
2013-07-06 01:50:00,69.1,32.7,30.43,South,180,1.0,2.0,26,0.00,,,0.00,meteohub,2013-07-06 05:50:00,
2013-07-06 01:51:00,69.1,32.7,30.43,East,90,2.0,2.0,26,0.00,,,0.00,meteohub,2013-07-06 05:51:00,
2013-07-06 01:54:00,69.1,32.7,30.42,South,180,2.0,2.0,26,0.00,,,0.00,meteohub,2013-07-06 05:54:00,
2013-07-06 01:55:00,69.1,32.7,30.43,East,90,2.0,3.0,26,0.00,,,0.00,meteohub,2013-07-06 05:55:00,
2013-07-06 01:56:00,69.1,32.7,30.43,East,90,2.0,3.0,26,0.00,,,0.00,meteohub,2013-07-06 05:56:00,
2013-07-06 01:58:00,69.1,32.7,30.43,South,180,2.0,3.0,26,0.00,,,0.00,meteohub,2013-07-06 05:58:00,
2013-07-06 02:00:00,69.1,32.7,30.43,SE,135,3.0,3.0,26,0.00,,,0.00,meteohub,2013-07-06 06:00:00,
2013-07-06 02:01:00,69.1,32.7,30.43,SE,135,2.0,3.0,26,0.00,,,0.00,meteohub,2013-07-06 06:01:00,
2013-07-06 02:02:00,69.1,32.7,30.43,SE,135,2.0,3.0,26,0.00,,,0.00,meteohub,2013-07-06 06:02:00,
2013-07-06 02:03:00,69.1,33.6,30.43,NE,45,2.0,3.0,27,0.00,,,0.00,meteohub,2013-07-06 06:03:00,
2013-07-06 02:05:00,69.1,33.6,30.43,East,90,2.0,3.0,27,0.00,,,0.00,meteohub,2013-07-06 06:05:00,
2013-07-06 02:06:00,69.1,33.6,30.43,SE,135,2.0,3.0,27,0.00,,,0.00,meteohub,2013-07-06 06:06:00,
2013-07-06 02:07:00,69.1,33.6,30.43,SE,135,1.0,3.0,27,0.00,,,0.00,meteohub,2013-07-06 06:07:00,
2013-07-06 02:09:00,69.1,33.6,30.43,SE,135,2.0,3.0,27,0.00,,,0.00,meteohub,2013-07-06 06:09:00,
2013-07-06 02:12:00,69.1,33.6,30.43,South,180,2.0,3.0,27,0.00,,,0.00,meteohub,2013-07-06 06:12:00,
2013-07-06 02:13:00,69.1,33.6,30.43,South,180,2.0,3.0,27,0.00,,,0.00,meteohub,2013-07-06 06:13:00,
2013-07-06 02:14:00,69.1,33.6,30.43,South,180,2.0,3.0,27,0.00,,,0.00,meteohub,2013-07-06 06:14:00,
2013-07-06 02:15:00,69.1,33.6,30.43,East,90,2.0,3.0,27,0.00,,,0.00,meteohub,2013-07-06 06:15:00,
2013-07-06 02:18:00,69.1,33.6,30.43,South,180,2.0,3.0,27,0.00,,,0.00,meteohub,2013-07-06 06:18:00,
2013-07-06 02:21:00,68.9,34.5,30.43,South,180,0.0,2.0,28,0.00,,,0.00,meteohub,2013-07-06 06:21:00,
2013-07-06 02:22:00,69.1,34.5,30.43,SE,135,0.0,2.0,28,0.00,,,0.00,meteohub,2013-07-06 06:22:00,
2013-07-06 02:23:00,68.9,34.5,30.43,South,180,1.0,2.0,28,0.00,,,0.00,meteohub,2013-07-06 06:23:00,
2013-07-06 02:26:00,68.9,34.5,30.43,SE,135,0.0,2.0,28,0.00,,,0.00,meteohub,2013-07-06 06:26:00,
2013-07-06 02:27:00,68.9,34.5,30.43,SE,135,2.0,2.0,28,0.00,,,0.00,meteohub,2013-07-06 06:27:00,
2013-07-06 02:28:00,68.9,34.5,30.43,South,180,2.0,2.0,28,0.00,,,0.00,meteohub,2013-07-06 06:28:00,
2013-07-06 02:29:00,69.1,34.5,30.43,South,180,2.0,2.0,28,0.00,,,0.00,meteohub,2013-07-06 06:29:00,
2013-07-06 02:32:00,69.1,34.5,30.43,SE,135,2.0,2.0,28,0.00,,,0.00,meteohub,2013-07-06 06:32:00,
2013-07-06 02:33:00,69.1,35.4,30.43,WSW,248,4.0,4.0,29,0.00,,,0.00,meteohub,2013-07-06 06:33:00,
2013-07-06 02:34:00,69.1,35.4,30.43,WSW,248,3.0,3.0,29,0.00,,,0.00,meteohub,2013-07-06 06:34:00,
2013-07-06 02:36:00,69.3,35.6,30.43,South,180,4.0,4.0,29,0.00,,,0.00,meteohub,2013-07-06 06:36:00,
2013-07-06 02:37:00,69.3,35.6,30.43,South,180,4.0,4.0,29,0.00,,,0.00,meteohub,2013-07-06 06:37:00,
2013-07-06 02:38:00,69.3,35.6,30.43,South,180,2.0,2.0,29,0.00,,,0.00,meteohub,2013-07-06 06:38:00,
2013-07-06 02:39:00,69.3,35.6,30.43,East,90,2.0,2.0,29,0.00,,,0.00,meteohub,2013-07-06 06:39:00,
2013-07-06 02:41:00,69.4,35.8,30.43,South,180,4.0,4.0,29,0.00,,,0.00,meteohub,2013-07-06 06:41:00,
2013-07-06 02:42:00,69.4,35.8,30.43,South,180,4.0,4.0,29,0.00,,,0.00,meteohub,2013-07-06 06:42:00,
2013-07-06 02:43:00,69.4,35.8,30.43,South,180,2.0,4.0,29,0.00,,,0.00,meteohub,2013-07-06 06:43:00,
2013-07-06 02:44:00,69.4,35.8,30.43,WSW,248,2.0,4.0,29,0.00,,,0.00,meteohub,2013-07-06 06:44:00,
2013-07-06 02:46:00,69.4,35.8,30.43,South,180,2.0,4.0,29,0.00,,,0.00,meteohub,2013-07-06 06:46:00,
2013-07-06 02:47:00,69.4,35.8,30.43,NE,45,2.0,4.0,29,0.00,,,0.00,meteohub,2013-07-06 06:47:00,
2013-07-06 02:48:00,69.4,35.8,30.42,South,180,2.0,4.0,29,0.00,,,0.00,meteohub,2013-07-06 06:48:00,
2013-07-06 02:50:00,69.4,35.8,30.42,West,270,2.0,4.0,29,0.00,,,0.00,meteohub,2013-07-06 06:50:00,
2013-07-06 02:52:00,69.4,35.8,30.43,South,180,2.0,4.0,29,0.00,,,0.00,meteohub,2013-07-06 06:52:00,
2013-07-06 02:53:00,69.4,35.8,30.43,South,180,3.0,4.0,29,0.00,,,0.00,meteohub,2013-07-06 06:53:00,
2013-07-06 02:54:00,69.4,35.8,30.43,South,180,2.0,4.0,29,0.00,,,0.00,meteohub,2013-07-06 06:54:00,
2013-07-06 02:55:00,69.4,35.8,30.43,South,180,2.0,4.0,29,0.00,,,0.00,meteohub,2013-07-06 06:55:00,
2013-07-06 02:57:00,69.4,35.8,30.43,South,180,2.0,4.0,29,0.00,,,0.00,meteohub,2013-07-06 06:57:00,
2013-07-06 02:58:00,69.4,35.8,30.43,South,180,2.0,4.0,29,0.00,,,0.00,meteohub,2013-07-06 06:58:00,
2013-07-06 02:59:00,69.3,35.6,30.43,South,180,2.0,4.0,29,0.00,,,0.00,meteohub,2013-07-06 06:59:00,
2013-07-06 03:00:00,69.3,35.6,30.43,SE,135,2.0,4.0,29,0.00,,,0.00,meteohub,2013-07-06 07:00:00,
2013-07-06 03:01:00,69.3,35.6,30.43,SE,135,2.0,4.0,29,0.00,,,0.00,meteohub,2013-07-06 07:01:00,
2013-07-06 03:02:00,69.3,35.6,30.43,WSW,248,2.0,4.0,29,0.00,,,0.00,meteohub,2013-07-06 07:02:00,
2013-07-06 03:03:00,69.3,35.6,30.43,South,180,2.0,4.0,29,0.00,,,0.00,meteohub,2013-07-06 07:03:00,
2013-07-06 03:04:00,69.3,35.6,30.43,South,180,3.0,4.0,29,0.00,,,0.00,meteohub,2013-07-06 07:04:00,
2013-07-06 03:06:00,69.3,35.6,30.43,SE,135,2.0,4.0,29,0.00,,,0.00,meteohub,2013-07-06 07:06:00,
2013-07-06 03:08:00,69.1,36.3,30.43,South,180,2.0,4.0,30,0.00,,,0.00,meteohub,2013-07-06 07:08:00,
2013-07-06 03:10:00,69.1,36.3,30.43,WSW,248,2.0,3.0,30,0.00,,,0.00,meteohub,2013-07-06 07:10:00,
2013-07-06 03:11:00,69.1,36.3,30.43,SE,135,2.0,3.0,30,0.00,,,0.00,meteohub,2013-07-06 07:11:00,
2013-07-06 03:12:00,69.1,36.3,30.43,South,180,1.0,3.0,30,0.00,,,0.00,meteohub,2013-07-06 07:12:00,
2013-07-06 03:13:00,69.1,36.3,30.43,SE,135,1.0,3.0,30,0.00,,,0.00,meteohub,2013-07-06 07:13:00,
2013-07-06 03:14:00,68.9,36.1,30.43,WSW,248,4.0,4.0,30,0.00,,,0.00,meteohub,2013-07-06 07:14:00,
2013-07-06 03:16:00,68.9,36.1,30.43,South,180,2.0,4.0,30,0.00,,,0.00,meteohub,2013-07-06 07:16:00,
2013-07-06 03:17:00,68.9,36.1,30.43,SE,135,2.0,4.0,30,0.00,,,0.00,meteohub,2013-07-06 07:17:00,
2013-07-06 03:18:00,68.9,36.1,30.43,SE,135,0.0,4.0,30,0.00,,,0.00,meteohub,2013-07-06 07:18:00,
2013-07-06 03:21:00,68.7,36.0,30.43,SE,135,2.0,4.0,30,0.00,,,0.00,meteohub,2013-07-06 07:21:00,
2013-07-06 03:22:00,68.7,36.0,30.43,South,180,2.0,4.0,30,0.00,,,0.00,meteohub,2013-07-06 07:22:00,
2013-07-06 03:23:00,68.7,36.0,30.42,South,180,2.0,4.0,30,0.00,,,0.00,meteohub,2013-07-06 07:23:00,
2013-07-06 03:27:00,68.7,36.9,30.43,SE,135,2.0,4.0,31,0.00,,,0.00,meteohub,2013-07-06 07:27:00,
2013-07-06 03:28:00,68.7,36.9,30.42,South,180,2.0,4.0,31,0.00,,,0.00,meteohub,2013-07-06 07:28:00,
2013-07-06 03:29:00,68.7,36.9,30.42,South,180,2.0,4.0,31,0.00,,,0.00,meteohub,2013-07-06 07:29:00,
2013-07-06 03:30:00,68.7,36.9,30.42,South,180,2.0,2.0,31,0.00,,,0.00,meteohub,2013-07-06 07:30:00,
2013-07-06 03:33:00,68.5,36.7,30.42,WSW,248,2.0,2.0,31,0.00,,,0.00,meteohub,2013-07-06 07:33:00,
2013-07-06 03:35:00,68.5,36.7,30.42,South,180,1.0,2.0,31,0.00,,,0.00,meteohub,2013-07-06 07:35:00,
2013-07-06 03:36:00,68.5,36.7,30.42,East,90,2.0,2.0,31,0.00,,,0.00,meteohub,2013-07-06 07:36:00,
2013-07-06 03:38:00,68.5,36.7,30.42,South,180,2.0,2.0,31,0.00,,,0.00,meteohub,2013-07-06 07:38:00,
2013-07-06 03:40:00,68.4,36.5,30.42,South,180,1.0,2.0,31,0.00,,,0.00,meteohub,2013-07-06 07:40:00,
2013-07-06 03:41:00,68.4,36.5,30.42,South,180,1.0,2.0,31,0.00,,,0.00,meteohub,2013-07-06 07:41:00,
2013-07-06 03:42:00,68.4,36.5,30.42,South,180,2.0,2.0,31,0.00,,,0.00,meteohub,2013-07-06 07:42:00,
2013-07-06 03:43:00,68.4,36.5,30.42,SE,135,2.0,2.0,31,0.00,,,0.00,meteohub,2013-07-06 07:43:00,
2013-07-06 03:46:00,68.4,36.5,30.42,South,180,0.0,2.0,31,0.00,,,0.00,meteohub,2013-07-06 07:46:00,
2013-07-06 03:47:00,68.4,36.5,30.42,South,180,0.0,2.0,31,0.00,,,0.00,meteohub,2013-07-06 07:47:00,
2013-07-06 03:48:00,68.4,37.4,30.42,South,180,0.0,2.0,32,0.00,,,0.00,meteohub,2013-07-06 07:48:00,
2013-07-06 03:51:00,68.2,37.2,30.42,South,180,2.0,2.0,32,0.00,,,0.00,meteohub,2013-07-06 07:51:00,
2013-07-06 03:52:00,68.2,37.2,30.42,South,180,2.0,2.0,32,0.00,,,0.00,meteohub,2013-07-06 07:52:00,
2013-07-06 03:53:00,68.2,37.2,30.42,South,180,2.0,2.0,32,0.00,,,0.00,meteohub,2013-07-06 07:53:00,
2013-07-06 03:54:00,68.2,37.2,30.42,South,180,2.0,2.0,32,0.00,,,0.00,meteohub,2013-07-06 07:54:00,
2013-07-06 03:55:00,68.2,37.2,30.42,South,180,2.0,2.0,32,0.00,,,0.00,meteohub,2013-07-06 07:55:00,
2013-07-06 03:57:00,68.2,37.2,30.42,South,180,2.0,2.0,32,0.00,,,0.00,meteohub,2013-07-06 07:57:00,
2013-07-06 03:58:00,68.2,37.2,30.42,South,180,2.0,2.0,32,0.00,,,0.00,meteohub,2013-07-06 07:58:00,
2013-07-06 03:59:00,68.2,37.2,30.42,SE,135,2.0,2.0,32,0.00,,,0.00,meteohub,2013-07-06 07:59:00,
2013-07-06 04:01:00,68.0,37.0,30.42,South,180,2.0,2.0,32,0.00,,,0.00,meteohub,2013-07-06 08:01:00,
2013-07-06 04:02:00,68.0,37.0,30.42,WSW,248,2.0,2.0,32,0.00,,,0.00,meteohub,2013-07-06 08:02:00,
2013-07-06 04:04:00,68.0,37.0,30.42,SE,135,2.0,2.0,32,0.00,,,0.00,meteohub,2013-07-06 08:04:00,
2013-07-06 04:05:00,68.0,37.8,30.42,SE,135,2.0,2.0,33,0.00,,,0.00,meteohub,2013-07-06 08:05:00,
2013-07-06 04:06:00,68.0,37.8,30.42,WSW,248,2.0,2.0,33,0.00,,,0.00,meteohub,2013-07-06 08:06:00,
2013-07-06 04:07:00,68.0,37.8,30.42,SE,135,1.0,2.0,33,0.00,,,0.00,meteohub,2013-07-06 08:07:00,
2013-07-06 04:08:00,68.0,37.8,30.42,SE,135,2.0,2.0,33,0.00,,,0.00,meteohub,2013-07-06 08:08:00,
2013-07-06 04:10:00,68.0,37.8,30.42,WSW,248,2.0,4.0,33,0.00,,,0.00,meteohub,2013-07-06 08:10:00,
2013-07-06 04:11:00,68.0,37.8,30.42,South,180,3.0,4.0,33,0.00,,,0.00,meteohub,2013-07-06 08:11:00,
2013-07-06 04:13:00,68.0,37.8,30.43,South,180,2.0,4.0,33,0.00,,,0.00,meteohub,2013-07-06 08:13:00,
2013-07-06 04:16:00,68.0,37.8,30.42,WSW,248,2.0,4.0,33,0.00,,,0.00,meteohub,2013-07-06 08:16:00,
2013-07-06 04:17:00,68.0,37.8,30.42,South,180,4.0,4.0,33,0.00,,,0.00,meteohub,2013-07-06 08:17:00,
2013-07-06 04:18:00,68.0,37.8,30.42,South,180,4.0,4.0,33,0.00,,,0.00,meteohub,2013-07-06 08:18:00,
2013-07-06 04:21:00,68.0,38.7,30.42,North,0,2.0,5.0,34,0.00,,,0.00,meteohub,2013-07-06 08:21:00,
2013-07-06 04:22:00,68.0,38.7,30.42,North,0,2.0,5.0,34,0.00,,,0.00,meteohub,2013-07-06 08:22:00,
2013-07-06 04:23:00,68.0,38.7,30.42,South,180,4.0,5.0,34,0.00,,,0.00,meteohub,2013-07-06 08:23:00,
2013-07-06 04:24:00,68.0,38.7,30.42,South,180,3.0,5.0,34,0.00,,,0.00,meteohub,2013-07-06 08:24:00,
2013-07-06 04:27:00,67.8,38.5,30.42,South,180,2.0,5.0,34,0.00,,,0.00,meteohub,2013-07-06 08:27:00,
2013-07-06 04:28:00,67.8,38.5,30.42,WSW,248,2.0,5.0,34,0.00,,,0.00,meteohub,2013-07-06 08:28:00,
2013-07-06 04:29:00,67.8,38.5,30.42,South,180,2.0,5.0,34,0.00,,,0.00,meteohub,2013-07-06 08:29:00,
2013-07-06 04:30:00,67.8,38.5,30.42,East,90,2.0,4.0,34,0.00,,,0.00,meteohub,2013-07-06 08:30:00,
2013-07-06 04:32:00,67.6,38.3,30.42,South,180,4.0,4.0,34,0.00,,,0.00,meteohub,2013-07-06 08:32:00,
2013-07-06 04:34:00,67.6,38.3,30.42,South,180,4.0,4.0,34,0.00,,,0.00,meteohub,2013-07-06 08:34:00,
2013-07-06 04:35:00,67.6,38.3,30.42,SE,135,3.0,4.0,34,0.00,,,0.00,meteohub,2013-07-06 08:35:00,
2013-07-06 04:36:00,67.6,38.3,30.42,South,180,2.0,4.0,34,0.00,,,0.00,meteohub,2013-07-06 08:36:00,
2013-07-06 04:37:00,67.6,38.3,30.42,SE,135,2.0,4.0,34,0.00,,,0.00,meteohub,2013-07-06 08:37:00,
2013-07-06 04:40:00,67.5,38.1,30.43,WSW,248,2.0,4.0,34,0.00,,,0.00,meteohub,2013-07-06 08:40:00,
2013-07-06 04:41:00,67.5,38.1,30.42,South,180,2.0,4.0,34,0.00,,,0.00,meteohub,2013-07-06 08:41:00,
2013-07-06 04:42:00,67.5,38.1,30.42,SE,135,2.0,4.0,34,0.00,,,0.00,meteohub,2013-07-06 08:42:00,
2013-07-06 04:44:00,67.5,38.1,30.42,South,180,2.0,4.0,34,0.00,,,0.00,meteohub,2013-07-06 08:44:00,
2013-07-06 04:46:00,67.5,38.1,30.43,SE,135,2.0,4.0,34,0.00,,,0.00,meteohub,2013-07-06 08:46:00,
2013-07-06 04:48:00,67.5,38.8,30.42,SE,135,4.0,4.0,35,0.00,,,0.00,meteohub,2013-07-06 08:48:00,
2013-07-06 04:50:00,67.5,38.8,30.43,South,180,2.0,4.0,35,0.00,,,0.00,meteohub,2013-07-06 08:50:00,
2013-07-06 04:51:00,67.5,38.8,30.43,South,180,2.0,4.0,35,0.00,,,0.00,meteohub,2013-07-06 08:51:00,
2013-07-06 04:52:00,67.5,38.8,30.42,South,180,2.0,4.0,35,0.00,,,0.00,meteohub,2013-07-06 08:52:00,
2013-07-06 04:53:00,67.5,38.8,30.42,SE,135,2.0,4.0,35,0.00,,,0.00,meteohub,2013-07-06 08:53:00,
2013-07-06 04:55:00,67.3,38.7,30.42,South,180,2.0,4.0,35,0.00,,,0.00,meteohub,2013-07-06 08:55:00,
2013-07-06 04:57:00,67.3,38.7,30.43,South,180,3.0,4.0,35,0.00,,,0.00,meteohub,2013-07-06 08:57:00,
2013-07-06 04:58:00,67.3,38.7,30.42,South,180,2.0,4.0,35,0.00,,,0.00,meteohub,2013-07-06 08:58:00,
2013-07-06 04:59:00,67.3,38.7,30.42,SE,135,3.0,4.0,35,0.00,,,0.00,meteohub,2013-07-06 08:59:00,
2013-07-06 05:01:00,67.3,38.7,30.42,South,180,2.0,4.0,35,0.00,,,0.00,meteohub,2013-07-06 09:01:00,
2013-07-06 05:02:00,67.3,38.7,30.42,South,180,2.0,4.0,35,0.00,,,0.00,meteohub,2013-07-06 09:02:00,
2013-07-06 05:03:00,67.3,38.7,30.42,SE,135,2.0,4.0,35,0.00,,,0.00,meteohub,2013-07-06 09:03:00,
2013-07-06 05:04:00,67.3,38.7,30.42,NW,315,2.0,4.0,35,0.00,,,0.00,meteohub,2013-07-06 09:04:00,
2013-07-06 05:06:00,67.3,38.7,30.42,South,180,2.0,3.0,35,0.00,,,0.00,meteohub,2013-07-06 09:06:00,
2013-07-06 05:07:00,67.3,38.7,30.42,South,180,2.0,3.0,35,0.00,,,0.00,meteohub,2013-07-06 09:07:00,
2013-07-06 05:08:00,67.1,38.5,30.42,South,180,2.0,3.0,35,0.00,,,0.00,meteohub,2013-07-06 09:08:00,
2013-07-06 05:09:00,67.1,38.5,30.42,South,180,2.0,3.0,35,0.00,,,0.00,meteohub,2013-07-06 09:09:00,
2013-07-06 05:10:00,67.1,38.5,30.42,SE,135,2.0,3.0,35,0.00,,,0.00,meteohub,2013-07-06 09:10:00,
2013-07-06 05:12:00,67.1,38.5,30.42,SE,135,2.0,3.0,35,0.00,,,0.00,meteohub,2013-07-06 09:12:00,
2013-07-06 05:13:00,67.1,38.5,30.42,South,180,1.0,3.0,35,0.00,,,0.00,meteohub,2013-07-06 09:13:00,
2013-07-06 05:14:00,67.1,38.5,30.42,SE,135,2.0,3.0,35,0.00,,,0.00,meteohub,2013-07-06 09:14:00,
2013-07-06 05:16:00,67.1,38.5,30.42,South,180,2.0,3.0,35,0.00,,,0.00,meteohub,2013-07-06 09:16:00,
2013-07-06 05:17:00,67.1,38.5,30.42,South,180,2.0,3.0,35,0.00,,,0.00,meteohub,2013-07-06 09:17:00,
2013-07-06 05:18:00,67.1,38.5,30.42,South,180,2.0,3.0,35,0.00,,,0.00,meteohub,2013-07-06 09:18:00,
2013-07-06 05:19:00,67.1,38.5,30.42,South,180,2.0,3.0,35,0.00,,,0.00,meteohub,2013-07-06 09:19:00,
2013-07-06 05:23:00,67.1,38.5,30.42,South,180,2.0,2.0,35,0.00,,,0.00,meteohub,2013-07-06 09:23:00,
2013-07-06 05:24:00,67.1,38.5,30.42,SE,135,0.0,2.0,35,0.00,,,0.00,meteohub,2013-07-06 09:24:00,
2013-07-06 05:25:00,67.1,38.5,30.42,SE,135,0.0,2.0,35,0.00,,,0.00,meteohub,2013-07-06 09:25:00,
2013-07-06 05:29:00,67.1,39.2,30.42,South,180,2.0,3.0,36,0.00,,,0.00,meteohub,2013-07-06 09:29:00,
2013-07-06 05:30:00,67.3,39.4,30.42,South,180,0.0,3.0,36,0.00,,,0.00,meteohub,2013-07-06 09:30:00,
2013-07-06 05:34:00,67.3,39.4,30.42,SE,135,2.0,3.0,36,0.00,,,0.00,meteohub,2013-07-06 09:34:00,
2013-07-06 05:35:00,67.3,39.4,30.42,South,180,2.0,3.0,36,0.00,,,0.00,meteohub,2013-07-06 09:35:00,
2013-07-06 05:36:00,67.3,39.4,30.42,South,180,2.0,3.0,36,0.00,,,0.00,meteohub,2013-07-06 09:36:00,
2013-07-06 05:40:00,67.3,39.4,30.42,South,180,2.0,3.0,36,0.00,,,0.00,meteohub,2013-07-06 09:40:00,
2013-07-06 05:42:00,67.3,39.4,30.42,South,180,2.0,3.0,36,0.00,,,0.00,meteohub,2013-07-06 09:42:00,
2013-07-06 05:45:00,67.3,39.4,30.42,SE,135,3.0,3.0,36,0.00,,,0.00,meteohub,2013-07-06 09:45:00,
2013-07-06 05:46:00,67.3,39.4,30.42,SE,135,2.0,3.0,36,0.00,,,0.00,meteohub,2013-07-06 09:46:00,
2013-07-06 05:47:00,67.3,39.4,30.42,South,180,2.0,3.0,36,0.00,,,0.00,meteohub,2013-07-06 09:47:00,
2013-07-06 05:48:00,67.3,39.4,30.42,SE,135,2.0,3.0,36,0.00,,,0.00,meteohub,2013-07-06 09:48:00,
2013-07-06 05:49:00,67.3,39.4,30.42,South,180,2.0,3.0,36,0.00,,,0.00,meteohub,2013-07-06 09:49:00,
2013-07-06 05:51:00,67.3,39.4,30.42,East,90,2.0,3.0,36,0.00,,,0.00,meteohub,2013-07-06 09:51:00,
2013-07-06 05:52:00,67.3,39.4,30.42,South,180,2.0,3.0,36,0.00,,,0.00,meteohub,2013-07-06 09:52:00,
2013-07-06 05:53:00,67.3,39.4,30.42,South,180,2.0,3.0,36,0.00,,,0.00,meteohub,2013-07-06 09:53:00,
2013-07-06 05:54:00,67.3,39.4,30.42,SE,135,2.0,3.0,36,0.00,,,0.00,meteohub,2013-07-06 09:54:00,
2013-07-06 05:56:00,67.3,39.4,30.42,South,180,2.0,3.0,36,0.00,,,0.00,meteohub,2013-07-06 09:56:00,
2013-07-06 05:58:00,67.3,40.1,30.43,SE,135,3.0,3.0,37,0.00,,,0.00,meteohub,2013-07-06 09:58:00,
2013-07-06 06:00:00,67.3,40.1,30.42,South,180,2.0,3.0,37,0.00,,,0.00,meteohub,2013-07-06 10:00:00,
2013-07-06 06:03:00,67.3,40.1,30.42,West,270,3.0,3.0,37,0.00,,,0.00,meteohub,2013-07-06 10:03:00,
2013-07-06 06:04:00,67.3,40.1,30.43,WSW,248,2.0,3.0,37,0.00,,,0.00,meteohub,2013-07-06 10:04:00,
2013-07-06 06:05:00,67.5,40.3,30.43,South,180,2.0,3.0,37,0.00,,,0.00,meteohub,2013-07-06 10:05:00,
2013-07-06 06:06:00,67.5,40.3,30.43,South,180,2.0,3.0,37,0.00,,,0.00,meteohub,2013-07-06 10:06:00,
2013-07-06 06:08:00,67.5,40.3,30.43,South,180,2.0,3.0,37,0.00,,,0.00,meteohub,2013-07-06 10:08:00,
2013-07-06 06:10:00,67.5,40.3,30.43,South,180,2.0,3.0,37,0.00,,,0.00,meteohub,2013-07-06 10:10:00,
2013-07-06 06:11:00,67.5,40.3,30.42,South,180,2.0,3.0,37,0.00,,,0.00,meteohub,2013-07-06 10:11:00,
2013-07-06 06:14:00,67.5,40.3,30.42,South,180,2.0,3.0,37,0.00,,,0.00,meteohub,2013-07-06 10:14:00,
2013-07-06 06:16:00,67.5,40.3,30.43,East,90,2.0,3.0,37,0.00,,,0.00,meteohub,2013-07-06 10:16:00,
2013-07-06 06:17:00,67.5,40.3,30.43,East,90,2.0,3.0,37,0.00,,,0.00,meteohub,2013-07-06 10:17:00,
2013-07-06 06:20:00,67.5,40.3,30.43,South,180,2.0,3.0,37,0.00,,,0.00,meteohub,2013-07-06 10:20:00,
2013-07-06 06:22:00,67.6,40.5,30.43,South,180,2.0,3.0,37,0.00,,,0.00,meteohub,2013-07-06 10:22:00,
2013-07-06 06:24:00,67.6,41.2,30.43,South,180,2.0,3.0,38,0.00,,,0.00,meteohub,2013-07-06 10:24:00,
2013-07-06 06:26:00,67.6,41.2,30.43,East,90,2.0,3.0,38,0.00,,,0.00,meteohub,2013-07-06 10:26:00,
2013-07-06 06:27:00,67.6,41.2,30.43,South,180,2.0,3.0,38,0.00,,,0.00,meteohub,2013-07-06 10:27:00,
2013-07-06 06:29:00,67.6,41.2,30.43,East,90,2.0,3.0,38,0.00,,,0.00,meteohub,2013-07-06 10:29:00,
2013-07-06 06:30:00,67.6,41.2,30.43,South,180,2.0,4.0,38,0.00,,,0.00,meteohub,2013-07-06 10:30:00,
2013-07-06 06:31:00,67.6,41.2,30.43,South,180,2.0,4.0,38,0.00,,,0.00,meteohub,2013-07-06 10:31:00,
2013-07-06 06:34:00,67.6,41.2,30.43,South,180,2.0,4.0,38,0.00,,,0.00,meteohub,2013-07-06 10:34:00,
2013-07-06 06:35:00,67.6,41.2,30.43,South,180,2.0,4.0,38,0.00,,,0.00,meteohub,2013-07-06 10:35:00,
2013-07-06 06:37:00,67.6,41.2,30.43,WSW,248,2.0,4.0,38,0.00,,,0.00,meteohub,2013-07-06 10:37:00,
2013-07-06 06:38:00,67.6,41.2,30.43,South,180,2.0,4.0,38,0.00,,,0.00,meteohub,2013-07-06 10:38:00,
2013-07-06 06:40:00,67.6,41.2,30.43,South,180,2.0,4.0,38,0.00,,,0.00,meteohub,2013-07-06 10:40:00,
2013-07-06 06:42:00,67.6,41.2,30.43,South,180,0.0,4.0,38,0.00,,,0.00,meteohub,2013-07-06 10:42:00,
2013-07-06 06:43:00,67.8,41.4,30.43,SE,135,2.0,4.0,38,0.00,,,0.00,meteohub,2013-07-06 10:43:00,
2013-07-06 06:44:00,67.8,41.4,30.43,SE,135,2.0,4.0,38,0.00,,,0.00,meteohub,2013-07-06 10:44:00,
2013-07-06 06:45:00,67.8,41.4,30.43,East,90,2.0,2.0,38,0.00,,,0.00,meteohub,2013-07-06 10:45:00,
2013-07-06 06:47:00,67.8,41.4,30.43,South,180,2.0,2.0,38,0.00,,,0.00,meteohub,2013-07-06 10:47:00,
2013-07-06 06:48:00,67.8,41.4,30.43,South,180,2.0,2.0,38,0.00,,,0.00,meteohub,2013-07-06 10:48:00,
2013-07-06 06:49:00,67.8,41.4,30.43,South,180,2.0,2.0,38,0.00,,,0.00,meteohub,2013-07-06 10:49:00,
2013-07-06 06:50:00,68.0,41.4,30.43,SE,135,2.0,2.0,38,0.00,,,0.00,meteohub,2013-07-06 10:50:00,
2013-07-06 06:53:00,68.0,41.4,30.43,South,180,2.0,2.0,38,0.00,,,0.00,meteohub,2013-07-06 10:53:00,
2013-07-06 06:54:00,68.0,41.4,30.43,South,180,2.0,2.0,38,0.00,,,0.00,meteohub,2013-07-06 10:54:00,
2013-07-06 06:55:00,68.2,42.3,30.43,WSW,248,2.0,3.0,39,0.00,,,0.00,meteohub,2013-07-06 10:55:00,
2013-07-06 06:56:00,68.2,42.3,30.43,WSW,248,2.0,3.0,39,0.00,,,0.00,meteohub,2013-07-06 10:56:00,
2013-07-06 06:59:00,68.4,42.4,30.43,SE,135,2.0,3.0,39,0.00,,,0.00,meteohub,2013-07-06 10:59:00,
2013-07-06 07:00:00,68.4,42.4,30.43,SE,135,1.0,3.0,39,0.00,,,0.00,meteohub,2013-07-06 11:00:00,
2013-07-06 07:01:00,68.4,42.4,30.43,SE,135,1.0,3.0,39,0.00,,,0.00,meteohub,2013-07-06 11:01:00,
2013-07-06 07:02:00,68.4,42.4,30.43,SE,135,1.0,3.0,39,0.00,,,0.00,meteohub,2013-07-06 11:02:00,
2013-07-06 07:04:00,68.4,42.4,30.43,SE,135,0.0,3.0,39,0.00,,,0.00,meteohub,2013-07-06 11:04:00,
2013-07-06 07:05:00,68.4,42.4,30.43,South,180,2.0,3.0,39,0.00,,,0.00,meteohub,2013-07-06 11:05:00,
2013-07-06 07:07:00,68.4,42.4,30.43,SE,135,2.0,3.0,39,0.00,,,0.00,meteohub,2013-07-06 11:07:00,
2013-07-06 07:09:00,68.4,42.4,30.43,South,180,1.0,3.0,39,0.00,,,0.00,meteohub,2013-07-06 11:09:00,
2013-07-06 07:10:00,68.4,42.4,30.43,SE,135,2.0,2.0,39,0.00,,,0.00,meteohub,2013-07-06 11:10:00,
2013-07-06 07:13:00,68.5,42.6,30.43,South,180,1.0,2.0,39,0.00,,,0.00,meteohub,2013-07-06 11:13:00,
2013-07-06 07:16:00,68.5,42.6,30.43,South,180,1.0,2.0,39,0.00,,,0.00,meteohub,2013-07-06 11:16:00,
2013-07-06 07:17:00,68.5,42.6,30.43,East,90,2.0,2.0,39,0.00,,,0.00,meteohub,2013-07-06 11:17:00,
2013-07-06 07:18:00,68.5,42.6,30.43,WSW,248,4.0,4.0,39,0.00,,,0.00,meteohub,2013-07-06 11:18:00,
2013-07-06 07:21:00,68.7,42.8,30.43,SE,135,3.0,4.0,39,0.00,,,0.00,meteohub,2013-07-06 11:21:00,
2013-07-06 07:22:00,68.7,42.8,30.43,SE,135,3.0,4.0,39,0.00,,,0.00,meteohub,2013-07-06 11:22:00,
2013-07-06 07:23:00,68.7,42.8,30.43,South,180,2.0,4.0,39,0.00,,,0.00,meteohub,2013-07-06 11:23:00,
2013-07-06 07:25:00,68.7,42.8,30.43,WSW,248,2.0,4.0,39,0.00,,,0.00,meteohub,2013-07-06 11:25:00,
2013-07-06 07:26:00,68.7,42.8,30.43,WSW,248,0.0,4.0,39,0.00,,,0.00,meteohub,2013-07-06 11:26:00,
2013-07-06 07:27:00,68.9,43.0,30.43,WSW,248,3.0,4.0,39,0.00,,,0.00,meteohub,2013-07-06 11:27:00,
2013-07-06 07:28:00,68.9,43.0,30.43,East,90,1.0,4.0,39,0.00,,,0.00,meteohub,2013-07-06 11:28:00,
2013-07-06 07:30:00,68.9,43.0,30.43,SE,135,2.0,4.0,39,0.00,,,0.00,meteohub,2013-07-06 11:30:00,
2013-07-06 07:32:00,69.1,43.2,30.44,WSW,248,2.0,4.0,39,0.00,,,0.00,meteohub,2013-07-06 11:32:00,
2013-07-06 07:35:00,69.1,43.2,30.44,South,180,4.0,4.0,39,0.00,,,0.00,meteohub,2013-07-06 11:35:00,
2013-07-06 07:36:00,69.3,43.2,30.44,SSE,158,3.0,4.0,39,0.00,,,0.00,meteohub,2013-07-06 11:36:00,
2013-07-06 07:37:00,69.3,43.9,30.44,West,270,4.0,4.0,40,0.00,,,0.00,meteohub,2013-07-06 11:37:00,
2013-07-06 07:38:00,69.3,43.9,30.44,West,270,4.0,4.0,40,0.00,,,0.00,meteohub,2013-07-06 11:38:00,
2013-07-06 07:39:00,69.3,43.9,30.43,WSW,248,2.0,4.0,40,0.00,,,0.00,meteohub,2013-07-06 11:39:00,
2013-07-06 07:41:00,69.3,43.9,30.44,South,180,4.0,4.0,40,0.00,,,0.00,meteohub,2013-07-06 11:41:00,
2013-07-06 07:42:00,69.4,44.1,30.44,WSW,248,3.0,4.0,40,0.00,,,0.00,meteohub,2013-07-06 11:42:00,
2013-07-06 07:43:00,69.4,44.1,30.44,South,180,2.0,4.0,40,0.00,,,0.00,meteohub,2013-07-06 11:43:00,
2013-07-06 07:44:00,69.4,44.1,30.44,SE,135,3.0,4.0,40,0.00,,,0.00,meteohub,2013-07-06 11:44:00,
2013-07-06 07:45:00,69.4,44.1,30.44,SE,135,4.0,4.0,40,0.00,,,0.00,meteohub,2013-07-06 11:45:00,
2013-07-06 07:47:00,69.6,44.2,30.44,South,180,3.0,4.0,40,0.00,,,0.00,meteohub,2013-07-06 11:47:00,
2013-07-06 07:48:00,69.6,44.2,30.44,WSW,248,3.0,4.0,40,0.00,,,0.00,meteohub,2013-07-06 11:48:00,
2013-07-06 07:50:00,69.8,44.4,30.44,South,180,0.0,4.0,40,0.00,,,0.00,meteohub,2013-07-06 11:50:00,
2013-07-06 07:52:00,70.0,44.6,30.44,South,180,2.0,4.0,40,0.00,,,0.00,meteohub,2013-07-06 11:52:00,
2013-07-06 07:53:00,70.2,44.8,30.44,South,180,2.0,4.0,40,0.00,,,0.00,meteohub,2013-07-06 11:53:00,
2013-07-06 07:54:00,70.3,45.0,30.44,South,180,1.0,4.0,40,0.00,,,0.00,meteohub,2013-07-06 11:54:00,
2013-07-06 07:55:00,70.3,45.0,30.44,SE,135,3.0,4.0,40,0.01,,,0.01,meteohub,2013-07-06 11:55:00,
2013-07-06 07:56:00,70.3,45.0,30.44,South,180,4.0,4.0,40,0.01,,,0.01,meteohub,2013-07-06 11:56:00,
2013-07-06 07:58:00,70.5,45.0,30.44,West,270,4.0,4.0,40,0.01,,,0.01,meteohub,2013-07-06 11:58:00,
2013-07-06 07:59:00,70.5,45.0,30.44,SE,135,4.0,4.0,40,0.01,,,0.01,meteohub,2013-07-06 11:59:00,
2013-07-06 08:01:00,70.5,45.0,30.44,South,180,4.0,4.0,40,0.01,,,0.01,meteohub,2013-07-06 12:01:00,
2013-07-06 08:04:00,70.9,45.3,30.44,WSW,248,3.0,4.0,40,0.01,,,0.01,meteohub,2013-07-06 12:04:00,
2013-07-06 08:05:00,71.1,45.5,30.44,WSW,248,4.0,5.0,40,0.01,,,0.01,meteohub,2013-07-06 12:05:00,
2013-07-06 08:06:00,71.1,45.5,30.44,South,180,4.0,5.0,40,0.01,,,0.01,meteohub,2013-07-06 12:06:00,
2013-07-06 08:07:00,71.1,45.5,30.44,South,180,4.0,5.0,40,0.01,,,0.01,meteohub,2013-07-06 12:07:00,
2013-07-06 08:09:00,71.4,45.9,30.44,West,270,2.0,5.0,40,0.01,,,0.01,meteohub,2013-07-06 12:09:00,
2013-07-06 08:10:00,71.6,45.3,30.44,WSW,248,2.0,5.0,39,0.01,,,0.01,meteohub,2013-07-06 12:10:00,
2013-07-06 08:11:00,71.8,45.5,30.44,WSW,248,4.0,5.0,39,0.01,,,0.01,meteohub,2013-07-06 12:11:00,
2013-07-06 08:12:00,71.8,45.5,30.44,WSW,248,4.0,5.0,39,0.01,,,0.01,meteohub,2013-07-06 12:12:00,
2013-07-06 08:15:00,72.3,46.0,30.44,South,180,2.0,5.0,39,0.01,,,0.01,meteohub,2013-07-06 12:15:00,
2013-07-06 08:16:00,72.3,46.0,30.45,South,180,2.0,5.0,39,0.01,,,0.01,meteohub,2013-07-06 12:16:00,
2013-07-06 08:17:00,72.7,45.7,30.45,WSW,248,2.0,5.0,38,0.01,,,0.01,meteohub,2013-07-06 12:17:00,
2013-07-06 08:21:00,73.6,45.0,30.44,South,180,3.0,5.0,36,0.01,,,0.01,meteohub,2013-07-06 12:21:00,
2013-07-06 08:22:00,73.8,44.4,30.45,West,270,2.0,5.0,35,0.01,,,0.01,meteohub,2013-07-06 12:22:00,
2013-07-06 08:23:00,73.8,43.7,30.45,South,180,4.0,5.0,34,0.01,,,0.01,meteohub,2013-07-06 12:23:00,
2013-07-06 08:26:00,73.9,41.4,30.45,South,180,3.0,5.0,31,0.01,,,0.01,meteohub,2013-07-06 12:26:00,
2013-07-06 08:28:00,74.1,39.9,30.44,WSW,248,5.0,5.0,29,0.01,,,0.01,meteohub,2013-07-06 12:28:00,
2013-07-06 08:29:00,74.1,39.0,30.45,SE,135,4.0,5.0,28,0.01,,,0.01,meteohub,2013-07-06 12:29:00,
2013-07-06 08:30:00,74.1,39.0,30.45,North,0,2.0,5.0,28,0.01,,,0.01,meteohub,2013-07-06 12:30:00,
2013-07-06 08:33:00,74.5,37.4,30.44,West,270,2.0,5.0,26,0.01,,,0.01,meteohub,2013-07-06 12:33:00,
2013-07-06 08:34:00,74.7,36.5,30.44,WSW,248,5.0,5.0,25,0.01,,,0.01,meteohub,2013-07-06 12:34:00,
2013-07-06 08:35:00,74.5,33.1,30.45,WSW,248,4.0,5.0,22,0.01,,,0.01,meteohub,2013-07-06 12:35:00,
2013-07-06 08:38:00,74.7,33.3,30.45,East,90,2.0,5.0,22,0.01,,,0.01,meteohub,2013-07-06 12:38:00,
2013-07-06 08:39:00,74.8,33.4,30.45,WSW,248,5.0,5.0,22,0.01,,,0.01,meteohub,2013-07-06 12:39:00,
2013-07-06 08:40:00,75.0,32.4,30.45,WSW,248,2.0,7.0,21,0.01,,,0.01,meteohub,2013-07-06 12:40:00,
2013-07-06 08:41:00,75.2,32.5,30.45,South,180,4.0,7.0,21,0.01,,,0.01,meteohub,2013-07-06 12:41:00,
2013-07-06 08:42:00,75.2,31.5,30.45,West,270,4.0,7.0,20,0.01,,,0.01,meteohub,2013-07-06 12:42:00,
2013-07-06 08:43:00,75.4,30.2,30.45,WSW,248,3.0,7.0,19,0.01,,,0.01,meteohub,2013-07-06 12:43:00,
2013-07-06 08:44:00,75.6,29.1,30.45,WSW,248,3.0,7.0,18,0.01,,,0.01,meteohub,2013-07-06 12:44:00,
2013-07-06 08:46:00,75.9,29.3,30.45,NW,315,3.0,7.0,18,0.01,,,0.01,meteohub,2013-07-06 12:46:00,
2013-07-06 08:48:00,76.1,25.2,30.45,WSW,248,3.0,7.0,15,0.01,,,0.01,meteohub,2013-07-06 12:48:00,
2013-07-06 08:49:00,76.1,25.2,30.45,WSW,248,3.0,7.0,15,0.01,,,0.01,meteohub,2013-07-06 12:49:00,
2013-07-06 08:50:00,76.1,25.2,30.45,South,180,4.0,6.0,15,0.01,,,0.01,meteohub,2013-07-06 12:50:00,
2013-07-06 08:52:00,76.1,23.4,30.45,WSW,248,1.0,6.0,14,0.01,,,0.01,meteohub,2013-07-06 12:52:00,
2013-07-06 08:53:00,76.1,23.4,30.45,South,180,3.0,6.0,14,0.01,,,0.01,meteohub,2013-07-06 12:53:00,
2013-07-06 08:54:00,76.1,21.7,30.45,WSW,248,5.0,6.0,13,0.01,,,0.01,meteohub,2013-07-06 12:54:00,
2013-07-06 08:56:00,76.1,19.8,30.45,WSW,248,4.0,5.0,12,0.00,,,0.01,meteohub,2013-07-06 12:56:00,
2013-07-06 08:58:00,76.1,21.7,30.45,WSW,248,5.0,5.0,13,0.00,,,0.01,meteohub,2013-07-06 12:58:00,
2013-07-06 08:59:00,76.1,25.2,30.45,SE,135,5.0,5.0,15,0.00,,,0.01,meteohub,2013-07-06 12:59:00,
2013-07-06 09:01:00,76.1,23.4,30.45,South,180,5.0,5.0,14,0.00,,,0.01,meteohub,2013-07-06 13:01:00,
2013-07-06 09:02:00,76.1,23.4,30.45,West,270,4.0,5.0,14,0.00,,,0.01,meteohub,2013-07-06 13:02:00,
2013-07-06 09:03:00,76.5,27.0,30.45,West,270,1.0,5.0,16,0.00,,,0.01,meteohub,2013-07-06 13:03:00,
2013-07-06 09:04:00,76.6,27.1,30.45,South,180,2.0,5.0,16,0.00,,,0.01,meteohub,2013-07-06 13:04:00,
2013-07-06 09:06:00,77.0,18.5,30.45,WSW,248,3.0,5.0,11,0.00,,,0.01,meteohub,2013-07-06 13:06:00,
2013-07-06 09:07:00,77.0,18.5,30.45,WSW,248,3.0,5.0,11,0.00,,,0.01,meteohub,2013-07-06 13:07:00,
2013-07-06 09:09:00,77.2,77.2,30.44,WSW,248,4.0,5.0,0,0.00,,,0.01,meteohub,2013-07-06 13:09:00,
2013-07-06 09:10:00,77.2,77.2,30.45,SSW,203,3.0,5.0,0,0.00,,,0.01,meteohub,2013-07-06 13:10:00,
2013-07-06 09:11:00,77.2,16.3,30.45,South,180,2.0,5.0,10,0.00,,,0.01,meteohub,2013-07-06 13:11:00,
2013-07-06 09:12:00,77.2,77.2,30.45,South,180,4.0,5.0,0,0.00,,,0.01,meteohub,2013-07-06 13:12:00,
2013-07-06 09:15:00,77.0,77.0,30.45,WSW,248,5.0,5.0,0,0.00,,,0.01,meteohub,2013-07-06 13:15:00,
2013-07-06 09:17:00,76.6,76.6,30.45,NE,45,2.0,5.0,0,0.00,,,0.01,meteohub,2013-07-06 13:17:00,
2013-07-06 09:20:00,76.6,18.1,30.44,South,180,4.0,5.0,11,0.00,,,0.01,meteohub,2013-07-06 13:20:00,
2013-07-06 09:22:00,76.5,18.0,30.45,East,90,3.0,5.0,11,0.00,,,0.01,meteohub,2013-07-06 13:22:00,
2013-07-06 09:23:00,76.6,18.1,30.45,South,180,2.0,5.0,11,0.00,,,0.01,meteohub,2013-07-06 13:23:00,
2013-07-06 09:24:00,76.6,16.0,30.44,South,180,3.0,5.0,10,0.00,,,0.01,meteohub,2013-07-06 13:24:00,
2013-07-06 09:26:00,77.0,18.5,30.44,South,180,2.0,5.0,11,0.00,,,0.01,meteohub,2013-07-06 13:26:00,
2013-07-06 09:28:00,77.4,77.4,30.45,WSW,248,4.0,5.0,0,0.00,,,0.01,meteohub,2013-07-06 13:28:00,
2013-07-06 09:29:00,77.4,77.4,30.45,South,180,2.0,5.0,0,0.00,,,0.01,meteohub,2013-07-06 13:29:00,
2013-07-06 09:32:00,77.5,77.5,30.44,South,180,2.0,5.0,0,0.00,,,0.01,meteohub,2013-07-06 13:32:00,
2013-07-06 09:33:00,77.7,77.7,30.44,South,180,3.0,5.0,0,0.00,,,0.01,meteohub,2013-07-06 13:33:00,
2013-07-06 09:34:00,77.7,77.7,30.44,NW,315,4.0,5.0,0,0.00,,,0.01,meteohub,2013-07-06 13:34:00,
2013-07-06 09:35:00,77.7,77.7,30.44,WSW,248,4.0,4.0,0,0.00,,,0.01,meteohub,2013-07-06 13:35:00,
2013-07-06 09:36:00,77.7,77.7,30.44,WSW,248,4.0,4.0,0,0.00,,,0.01,meteohub,2013-07-06 13:36:00,
2013-07-06 09:38:00,77.9,77.9,30.44,West,270,2.0,4.0,0,0.00,,,0.01,meteohub,2013-07-06 13:38:00,
2013-07-06 09:39:00,78.1,78.1,30.44,East,90,1.0,4.0,0,0.00,,,0.01,meteohub,2013-07-06 13:39:00,
2013-07-06 09:40:00,78.1,78.1,30.44,East,90,1.0,4.0,0,0.00,,,0.01,meteohub,2013-07-06 13:40:00,
2013-07-06 09:42:00,77.9,77.9,30.44,South,180,2.0,4.0,0,0.00,,,0.01,meteohub,2013-07-06 13:42:00,
2013-07-06 09:44:00,77.9,77.9,30.44,SE,135,1.0,4.0,0,0.00,,,0.01,meteohub,2013-07-06 13:44:00,
2013-07-06 09:45:00,78.1,78.1,30.44,WSW,248,1.0,4.0,0,0.00,,,0.01,meteohub,2013-07-06 13:45:00,
2013-07-06 09:47:00,78.1,78.1,30.45,South,180,3.0,4.0,0,0.00,,,0.01,meteohub,2013-07-06 13:47:00,
2013-07-06 09:50:00,78.3,78.3,30.44,SE,135,2.0,4.0,0,0.00,,,0.01,meteohub,2013-07-06 13:50:00,
2013-07-06 09:51:00,78.3,78.3,30.44,South,180,2.0,4.0,0,0.00,,,0.01,meteohub,2013-07-06 13:51:00,
2013-07-06 09:54:00,78.3,78.3,30.45,SE,135,2.0,4.0,0,0.00,,,0.01,meteohub,2013-07-06 13:54:00,
2013-07-06 09:55:00,78.3,78.3,30.44,East,90,1.0,4.0,0,0.00,,,0.01,meteohub,2013-07-06 13:55:00,
2013-07-06 09:56:00,78.3,78.3,30.44,WSW,248,2.0,4.0,0,0.00,,,0.01,meteohub,2013-07-06 13:56:00,
2013-07-06 09:58:00,78.3,78.3,30.44,SE,135,1.0,4.0,0,0.00,,,0.01,meteohub,2013-07-06 13:58:00,
2013-07-06 09:59:00,78.3,78.3,30.44,South,180,2.0,4.0,0,0.00,,,0.01,meteohub,2013-07-06 13:59:00,
2013-07-06 10:01:00,78.6,78.6,30.44,NW,315,2.0,4.0,0,0.00,,,0.01,meteohub,2013-07-06 14:01:00,
2013-07-06 10:02:00,78.6,78.6,30.44,NW,315,2.0,4.0,0,0.00,,,0.01,meteohub,2013-07-06 14:02:00,
2013-07-06 10:04:00,78.6,78.6,30.44,WSW,248,4.0,4.0,0,0.00,,,0.01,meteohub,2013-07-06 14:04:00,
2013-07-06 10:05:00,78.6,78.6,30.44,NE,45,3.0,4.0,0,0.00,,,0.01,meteohub,2013-07-06 14:05:00,
2013-07-06 10:07:00,78.8,78.8,30.44,South,180,4.0,4.0,0,0.00,,,0.01,meteohub,2013-07-06 14:07:00,
2013-07-06 10:08:00,79.0,79.0,30.44,East,90,3.0,4.0,0,0.00,,,0.01,meteohub,2013-07-06 14:08:00,
2013-07-06 10:09:00,79.0,79.0,30.44,WSW,248,4.0,4.0,0,0.00,,,0.01,meteohub,2013-07-06 14:09:00,
2013-07-06 10:10:00,79.0,79.0,30.44,South,180,5.0,5.0,0,0.00,,,0.01,meteohub,2013-07-06 14:10:00,
2013-07-06 10:12:00,78.4,78.4,30.44,WSW,248,4.0,4.0,0,0.00,,,0.01,meteohub,2013-07-06 14:12:00,
2013-07-06 10:13:00,78.3,78.3,30.44,NW,315,5.0,5.0,0,0.00,,,0.01,meteohub,2013-07-06 14:13:00,
2013-07-06 10:14:00,78.3,78.3,30.44,NE,45,2.0,4.0,0,0.00,,,0.01,meteohub,2013-07-06 14:14:00,
2013-07-06 10:15:00,78.3,78.3,30.44,NNE,23,3.0,5.0,0,0.00,,,0.01,meteohub,2013-07-06 14:15:00,
2013-07-06 10:18:00,79.2,79.2,30.44,West,270,2.0,5.0,0,0.00,,,0.01,meteohub,2013-07-06 14:18:00,
2013-07-06 10:19:00,79.5,79.5,30.44,NE,45,1.0,5.0,0,0.00,,,0.01,meteohub,2013-07-06 14:19:00,
2013-07-06 10:20:00,79.7,79.7,30.44,East,90,2.0,5.0,0,0.00,,,0.01,meteohub,2013-07-06 14:20:00,
2013-07-06 10:25:00,80.2,80.2,30.44,SE,135,4.0,5.0,0,0.00,,,0.01,meteohub,2013-07-06 14:25:00,
2013-07-06 10:26:00,80.4,80.4,30.44,South,180,4.0,5.0,0,0.00,,,0.01,meteohub,2013-07-06 14:26:00,
2013-07-06 10:27:00,80.6,80.6,30.44,SE,135,4.0,5.0,0,0.00,,,0.01,meteohub,2013-07-06 14:27:00,
2013-07-06 10:30:00,80.8,80.8,30.44,WSW,248,4.0,5.0,0,0.00,,,0.01,meteohub,2013-07-06 14:30:00,
2013-07-06 10:32:00,80.8,80.8,30.44,WSW,248,2.0,4.0,0,0.00,,,0.01,meteohub,2013-07-06 14:32:00,
2013-07-06 10:35:00,81.3,81.3,30.44,SE,135,4.0,5.0,0,0.00,,,0.01,meteohub,2013-07-06 14:35:00,
2013-07-06 10:36:00,81.3,81.3,30.44,WSW,248,3.0,5.0,0,0.00,,,0.01,meteohub,2013-07-06 14:36:00,
2013-07-06 10:37:00,81.1,81.1,30.44,East,90,6.0,6.0,0,0.00,,,0.01,meteohub,2013-07-06 14:37:00,
2013-07-06 10:38:00,81.3,81.3,30.44,WSW,248,3.0,5.0,0,0.00,,,0.01,meteohub,2013-07-06 14:38:00,
2013-07-06 10:41:00,81.7,81.7,30.43,South,180,2.0,6.0,0,0.00,,,0.01,meteohub,2013-07-06 14:41:00,
2013-07-06 10:42:00,81.7,81.7,30.43,South,180,2.0,6.0,0,0.00,,,0.01,meteohub,2013-07-06 14:42:00,
2013-07-06 10:43:00,81.9,81.9,30.43,WSW,248,4.0,6.0,0,0.00,,,0.01,meteohub,2013-07-06 14:43:00,
2013-07-06 10:44:00,82.2,82.2,30.43,WSW,248,2.0,6.0,0,0.00,,,0.01,meteohub,2013-07-06 14:44:00,
2013-07-06 10:46:00,82.8,82.8,30.44,WSW,248,4.0,6.0,0,0.00,,,0.01,meteohub,2013-07-06 14:46:00,
2013-07-06 10:47:00,82.8,82.8,30.43,SE,135,4.0,6.0,0,0.00,,,0.01,meteohub,2013-07-06 14:47:00,
2013-07-06 10:48:00,82.9,82.9,30.44,WSW,248,4.0,6.0,0,0.00,,,0.01,meteohub,2013-07-06 14:48:00,
2013-07-06 10:50:00,82.8,82.8,30.44,South,180,4.0,6.0,0,0.00,,,0.01,meteohub,2013-07-06 14:50:00,
2013-07-06 10:52:00,82.2,82.2,30.44,North,0,1.0,6.0,0,0.00,,,0.01,meteohub,2013-07-06 14:52:00,
2013-07-06 10:53:00,82.2,82.2,30.44,South,180,2.0,6.0,0,0.00,,,0.01,meteohub,2013-07-06 14:53:00,
2013-07-06 10:56:00,81.7,81.7,30.44,South,180,4.0,5.0,0,0.00,,,0.01,meteohub,2013-07-06 14:56:00,
2013-07-06 10:57:00,81.7,81.7,30.44,South,180,4.0,5.0,0,0.00,,,0.01,meteohub,2013-07-06 14:57:00,
2013-07-06 10:58:00,81.9,81.9,30.43,WSW,248,6.0,6.0,0,0.00,,,0.01,meteohub,2013-07-06 14:58:00,
2013-07-06 10:59:00,81.9,81.9,30.43,WSW,248,6.0,6.0,0,0.00,,,0.01,meteohub,2013-07-06 14:59:00,
2013-07-06 11:02:00,82.0,82.0,30.44,WSW,248,2.0,6.0,0,0.00,,,0.01,meteohub,2013-07-06 15:02:00,
2013-07-06 11:03:00,82.0,82.0,30.44,WSW,248,2.0,6.0,0,0.00,,,0.01,meteohub,2013-07-06 15:03:00,
2013-07-06 11:04:00,82.0,82.0,30.44,WSW,248,2.0,6.0,0,0.00,,,0.01,meteohub,2013-07-06 15:04:00,
2013-07-06 11:07:00,82.0,82.0,30.44,WSW,248,2.0,6.0,0,0.00,,,0.01,meteohub,2013-07-06 15:07:00,
2013-07-06 11:08:00,82.9,82.9,30.44,West,270,2.0,6.0,0,0.00,,,0.01,meteohub,2013-07-06 15:08:00,
2013-07-06 11:09:00,82.9,82.9,30.44,West,270,2.0,6.0,0,0.00,,,0.01,meteohub,2013-07-06 15:09:00,
2013-07-06 11:11:00,83.8,83.8,30.44,South,180,2.0,6.0,0,0.00,,,0.01,meteohub,2013-07-06 15:11:00,
2013-07-06 11:13:00,84.2,84.2,30.44,South,180,5.0,6.0,0,0.00,,,0.01,meteohub,2013-07-06 15:13:00,
2013-07-06 11:14:00,84.0,84.0,30.44,NNW,338,5.0,6.0,0,0.00,,,0.01,meteohub,2013-07-06 15:14:00,
2013-07-06 11:16:00,84.0,84.0,30.44,SE,135,2.0,5.0,0,0.00,,,0.01,meteohub,2013-07-06 15:16:00,
2013-07-06 11:17:00,84.0,84.0,30.44,SE,135,2.0,5.0,0,0.00,,,0.01,meteohub,2013-07-06 15:17:00,
2013-07-06 11:18:00,84.0,84.0,30.43,NW,315,3.0,5.0,0,0.00,,,0.01,meteohub,2013-07-06 15:18:00,
2013-07-06 11:19:00,84.0,84.0,30.44,West,270,2.0,5.0,0,0.00,,,0.01,meteohub,2013-07-06 15:19:00,
2013-07-06 11:20:00,84.0,84.0,30.44,NW,315,2.0,5.0,0,0.00,,,0.01,meteohub,2013-07-06 15:20:00,
2013-07-06 11:21:00,83.5,83.5,30.43,East,90,4.0,5.0,0,0.00,,,0.01,meteohub,2013-07-06 15:21:00,
2013-07-06 11:23:00,83.1,83.1,30.43,East,90,3.0,5.0,0,0.00,,,0.01,meteohub,2013-07-06 15:23:00,
2013-07-06 11:24:00,82.9,82.9,30.44,West,270,4.0,5.0,0,0.00,,,0.01,meteohub,2013-07-06 15:24:00,
2013-07-06 11:25:00,82.8,82.8,30.44,WSW,248,4.0,5.0,0,0.00,,,0.01,meteohub,2013-07-06 15:25:00,
2013-07-06 11:27:00,82.4,82.4,30.44,NE,45,2.0,5.0,0,0.00,,,0.01,meteohub,2013-07-06 15:27:00,
2013-07-06 11:28:00,82.6,82.6,30.43,South,180,4.0,5.0,0,0.00,,,0.01,meteohub,2013-07-06 15:28:00,
2013-07-06 11:29:00,82.8,82.8,30.43,West,270,3.0,5.0,0,0.00,,,0.01,meteohub,2013-07-06 15:29:00,
2013-07-06 11:30:00,82.9,82.9,30.44,South,180,4.0,5.0,0,0.00,,,0.01,meteohub,2013-07-06 15:30:00,
2013-07-06 11:31:00,83.1,83.1,30.43,WSW,248,3.0,5.0,0,0.00,,,0.01,meteohub,2013-07-06 15:31:00,
2013-07-06 11:32:00,83.1,83.1,30.43,WSW,248,3.0,5.0,0,0.00,,,0.01,meteohub,2013-07-06 15:32:00,
2013-07-06 11:34:00,83.3,83.3,30.43,South,180,6.0,6.0,0,0.00,,,0.01,meteohub,2013-07-06 15:34:00,
2013-07-06 11:35:00,83.3,83.3,30.44,East,90,3.0,5.0,0,0.00,,,0.01,meteohub,2013-07-06 15:35:00,
2013-07-06 11:36:00,83.3,83.3,30.43,SE,135,2.0,5.0,0,0.00,,,0.01,meteohub,2013-07-06 15:36:00,
2013-07-06 11:38:00,83.5,83.5,30.44,SE,135,6.0,6.0,0,0.00,,,0.01,meteohub,2013-07-06 15:38:00,
2013-07-06 11:39:00,83.5,83.5,30.44,West,270,6.0,6.0,0,0.00,,,0.01,meteohub,2013-07-06 15:39:00,
2013-07-06 11:40:00,83.5,83.5,30.44,WSW,248,5.0,6.0,0,0.00,,,0.01,meteohub,2013-07-06 15:40:00,
2013-07-06 11:41:00,83.5,83.5,30.43,SE,135,2.0,6.0,0,0.00,,,0.01,meteohub,2013-07-06 15:41:00,
2013-07-06 11:43:00,83.5,83.5,30.44,SE,135,5.0,6.0,0,0.00,,,0.01,meteohub,2013-07-06 15:43:00,
2013-07-06 11:44:00,83.5,83.5,30.44,South,180,4.0,6.0,0,0.00,,,0.01,meteohub,2013-07-06 15:44:00,
2013-07-06 11:45:00,83.5,83.5,30.44,NW,315,4.0,6.0,0,0.00,,,0.01,meteohub,2013-07-06 15:45:00,
2013-07-06 11:48:00,83.8,83.8,30.44,SE,135,2.0,6.0,0,0.00,,,0.01,meteohub,2013-07-06 15:48:00,
2013-07-06 11:49:00,83.8,83.8,30.44,SE,135,2.0,6.0,0,0.00,,,0.01,meteohub,2013-07-06 15:49:00,
2013-07-06 11:50:00,84.2,84.2,30.44,WSW,248,2.0,6.0,0,0.00,,,0.01,meteohub,2013-07-06 15:50:00,
2013-07-06 11:52:00,84.4,84.4,30.44,South,180,4.0,6.0,0,0.00,,,0.01,meteohub,2013-07-06 15:52:00,
2013-07-06 11:54:00,84.2,84.2,30.44,WSW,248,4.0,6.0,0,0.00,,,0.01,meteohub,2013-07-06 15:54:00,
2013-07-06 11:56:00,84.6,84.6,30.44,North,0,3.0,6.0,0,0.00,,,0.01,meteohub,2013-07-06 15:56:00,
2013-07-06 11:57:00,84.9,84.9,30.43,North,0,2.0,6.0,0,0.00,,,0.01,meteohub,2013-07-06 15:57:00,
2013-07-06 12:00:00,85.5,85.5,30.44,SE,135,3.0,4.0,0,0.00,,,0.01,meteohub,2013-07-06 16:00:00,
2013-07-06 12:01:00,85.5,85.5,30.44,SE,135,3.0,4.0,0,0.00,,,0.01,meteohub,2013-07-06 16:01:00,
2013-07-06 12:02:00,85.5,85.5,30.43,SE,135,3.0,4.0,0,0.00,,,0.01,meteohub,2013-07-06 16:02:00,
2013-07-06 12:06:00,85.5,85.5,30.43,SE,135,3.0,4.0,0,0.00,,,0.01,meteohub,2013-07-06 16:06:00,
2013-07-06 12:08:00,85.5,85.5,30.43,SE,135,3.0,4.0,0,0.00,,,0.01,meteohub,2013-07-06 16:08:00,
2013-07-06 12:11:00,86.4,86.4,30.43,SE,135,2.0,4.0,0,0.00,,,0.01,meteohub,2013-07-06 16:11:00,
2013-07-06 12:13:00,86.2,86.2,30.43,West,270,6.0,6.0,0,0.00,,,0.01,meteohub,2013-07-06 16:13:00,
2013-07-06 12:14:00,85.6,85.6,30.43,WSW,248,7.0,7.0,0,0.00,,,0.01,meteohub,2013-07-06 16:14:00,
2013-07-06 12:16:00,85.3,85.3,30.43,South,180,3.0,7.0,0,0.00,,,0.01,meteohub,2013-07-06 16:16:00,
2013-07-06 12:18:00,85.5,85.5,30.43,NW,315,2.0,7.0,0,0.00,,,0.01,meteohub,2013-07-06 16:18:00,
2013-07-06 12:19:00,85.8,85.8,30.43,WSW,248,4.0,7.0,0,0.00,,,0.01,meteohub,2013-07-06 16:19:00,
2013-07-06 12:20:00,85.8,85.8,30.43,WSW,248,6.0,7.0,0,0.00,,,0.01,meteohub,2013-07-06 16:20:00,
2013-07-06 12:22:00,85.1,85.1,30.42,East,90,3.0,7.0,0,0.00,,,0.01,meteohub,2013-07-06 16:22:00,
2013-07-06 12:24:00,84.9,84.9,30.43,West,270,4.0,7.0,0,0.00,,,0.01,meteohub,2013-07-06 16:24:00,
2013-07-06 12:25:00,84.9,84.9,30.42,NE,45,2.0,7.0,0,0.00,,,0.01,meteohub,2013-07-06 16:25:00,
2013-07-06 12:28:00,85.3,85.3,30.42,SE,135,2.0,7.0,0,0.00,,,0.01,meteohub,2013-07-06 16:28:00,
2013-07-06 12:30:00,85.8,85.8,30.42,South,180,4.0,7.0,0,0.00,,,0.01,meteohub,2013-07-06 16:30:00,
2013-07-06 12:33:00,85.6,85.6,30.42,SE,135,2.0,7.0,0,0.00,,,0.01,meteohub,2013-07-06 16:33:00,
2013-07-06 12:36:00,86.0,86.0,30.42,WSW,248,5.0,7.0,0,0.00,,,0.01,meteohub,2013-07-06 16:36:00,
2013-07-06 12:39:00,84.7,84.7,30.42,WSW,248,3.0,7.0,0,0.00,,,0.01,meteohub,2013-07-06 16:39:00,
2013-07-06 12:41:00,84.7,84.7,30.42,SE,135,6.0,6.0,0,0.00,,,0.01,meteohub,2013-07-06 16:41:00,
2013-07-06 12:46:00,85.1,85.1,30.42,NE,45,4.0,6.0,0,0.00,,,0.01,meteohub,2013-07-06 16:46:00,
2013-07-06 12:47:00,85.1,85.1,30.42,NW,315,2.0,6.0,0,0.00,,,0.01,meteohub,2013-07-06 16:47:00,
2013-07-06 12:48:00,85.1,85.1,30.42,NW,315,2.0,6.0,0,0.00,,,0.01,meteohub,2013-07-06 16:48:00,
2013-07-06 12:52:00,85.1,85.1,30.42,East,90,2.0,6.0,0,0.00,,,0.01,meteohub,2013-07-06 16:52:00,
2013-07-06 12:53:00,85.1,85.1,30.42,East,90,2.0,6.0,0,0.00,,,0.01,meteohub,2013-07-06 16:53:00,
2013-07-06 12:56:00,85.3,85.3,30.41,SE,135,8.0,8.0,0,0.00,,,0.01,meteohub,2013-07-06 16:56:00,
2013-07-06 12:58:00,85.3,85.3,30.41,WSW,248,6.0,6.0,0,0.00,,,0.01,meteohub,2013-07-06 16:58:00,
2013-07-06 13:01:00,84.7,84.7,30.41,South,180,4.0,8.0,0,0.00,,,0.01,meteohub,2013-07-06 17:01:00,
2013-07-06 13:04:00,84.7,84.7,30.41,South,180,4.0,8.0,0,0.00,,,0.01,meteohub,2013-07-06 17:04:00,
2013-07-06 13:05:00,84.7,84.7,30.41,South,180,4.0,8.0,0,0.00,,,0.01,meteohub,2013-07-06 17:05:00,
2013-07-06 13:07:00,84.7,84.7,30.41,South,180,4.0,8.0,0,0.00,,,0.01,meteohub,2013-07-06 17:07:00,
2013-07-06 13:11:00,86.2,86.2,30.41,South,180,2.0,8.0,0,0.00,,,0.01,meteohub,2013-07-06 17:11:00,
2013-07-06 13:12:00,86.5,86.5,30.41,NW,315,2.0,8.0,0,0.00,,,0.01,meteohub,2013-07-06 17:12:00,
2013-07-06 13:16:00,87.3,87.3,30.40,NE,45,2.0,4.0,0,0.00,,,0.01,meteohub,2013-07-06 17:16:00,
2013-07-06 13:17:00,87.4,87.4,30.40,South,180,7.0,7.0,0,0.00,,,0.01,meteohub,2013-07-06 17:17:00,
2013-07-06 13:21:00,87.8,87.8,30.41,East,90,4.0,7.0,0,0.00,,,0.01,meteohub,2013-07-06 17:21:00,
2013-07-06 13:23:00,87.8,87.8,30.41,West,270,2.0,7.0,0,0.00,,,0.01,meteohub,2013-07-06 17:23:00,
2013-07-06 13:27:00,88.0,88.0,30.40,WSW,248,5.0,7.0,0,0.00,,,0.01,meteohub,2013-07-06 17:27:00,
2013-07-06 13:28:00,88.0,88.0,30.40,WSW,248,2.0,7.0,0,0.00,,,0.01,meteohub,2013-07-06 17:28:00,
2013-07-06 13:29:00,88.0,88.0,30.40,NW,315,2.0,7.0,0,0.00,,,0.01,meteohub,2013-07-06 17:29:00,
2013-07-06 13:32:00,87.3,87.3,30.40,NW,315,3.0,7.0,0,0.00,,,0.01,meteohub,2013-07-06 17:32:00,
2013-07-06 13:33:00,87.3,87.3,30.40,West,270,2.0,7.0,0,0.00,,,0.01,meteohub,2013-07-06 17:33:00,
2013-07-06 13:35:00,87.3,87.3,30.40,SE,135,2.0,7.0,0,0.00,,,0.01,meteohub,2013-07-06 17:35:00,
2013-07-06 13:38:00,88.2,88.2,30.40,West,270,4.0,6.0,0,0.00,,,0.01,meteohub,2013-07-06 17:38:00,
2013-07-06 13:39:00,88.2,88.2,30.40,South,180,2.0,6.0,0,0.00,,,0.01,meteohub,2013-07-06 17:39:00,
2013-07-06 13:40:00,88.2,88.2,30.39,West,270,4.0,6.0,0,0.00,,,0.01,meteohub,2013-07-06 17:40:00,
2013-07-06 13:43:00,88.0,88.0,30.40,South,180,2.0,6.0,0,0.00,,,0.01,meteohub,2013-07-06 17:43:00,
2013-07-06 13:44:00,88.0,88.0,30.39,WSW,248,3.0,6.0,0,0.00,,,0.01,meteohub,2013-07-06 17:44:00,
2013-07-06 13:47:00,88.0,88.0,30.39,South,180,2.0,4.0,0,0.00,,,0.01,meteohub,2013-07-06 17:47:00,
2013-07-06 13:49:00,88.3,88.3,30.39,South,180,2.0,4.0,0,0.00,,,0.01,meteohub,2013-07-06 17:49:00,
2013-07-06 13:50:00,88.3,88.3,30.39,South,180,2.0,4.0,0,0.00,,,0.01,meteohub,2013-07-06 17:50:00,
2013-07-06 13:55:00,88.5,88.5,30.39,South,180,2.0,4.0,0,0.00,,,0.01,meteohub,2013-07-06 17:55:00,
2013-07-06 13:56:00,88.7,88.7,30.39,SE,135,4.0,4.0,0,0.00,,,0.01,meteohub,2013-07-06 17:56:00,
2013-07-06 13:57:00,88.7,88.7,30.39,SE,135,4.0,4.0,0,0.00,,,0.01,meteohub,2013-07-06 17:57:00,
2013-07-06 14:00:00,87.8,87.8,30.39,North,0,2.0,4.0,0,0.00,,,0.01,meteohub,2013-07-06 18:00:00,
2013-07-06 14:01:00,87.8,87.8,30.39,North,0,2.0,4.0,0,0.00,,,0.01,meteohub,2013-07-06 18:01:00,
2013-07-06 14:05:00,87.8,87.8,30.39,North,0,2.0,4.0,0,0.00,,,0.01,meteohub,2013-07-06 18:05:00,
2013-07-06 14:06:00,87.8,87.8,30.39,North,0,2.0,4.0,0,0.00,,,0.01,meteohub,2013-07-06 18:06:00,
2013-07-06 14:10:00,87.4,87.4,30.39,West,270,3.0,4.0,0,0.00,,,0.01,meteohub,2013-07-06 18:10:00,
2013-07-06 14:12:00,87.4,87.4,30.38,SE,135,3.0,4.0,0,0.00,,,0.01,meteohub,2013-07-06 18:12:00,
2013-07-06 14:13:00,88.0,88.0,30.38,West,270,4.0,4.0,0,0.00,,,0.01,meteohub,2013-07-06 18:13:00,
2013-07-06 14:17:00,87.8,87.8,30.39,South,180,7.0,7.0,0,0.00,,,0.01,meteohub,2013-07-06 18:17:00,
2013-07-06 14:19:00,87.6,87.6,30.39,West,270,4.0,4.0,0,0.00,,,0.01,meteohub,2013-07-06 18:19:00,
2013-07-06 14:24:00,88.0,88.0,30.38,South,180,2.0,8.0,0,0.00,,,0.01,meteohub,2013-07-06 18:24:00,
2013-07-06 14:25:00,88.2,88.2,30.38,South,180,4.0,8.0,0,0.00,,,0.01,meteohub,2013-07-06 18:25:00,
2013-07-06 14:30:00,88.3,88.3,30.38,SE,135,2.0,8.0,0,0.00,,,0.01,meteohub,2013-07-06 18:30:00,
2013-07-06 14:31:00,88.3,88.3,30.38,SE,135,5.0,8.0,0,0.00,,,0.01,meteohub,2013-07-06 18:31:00,
2013-07-06 14:32:00,88.2,88.2,30.38,NW,315,7.0,8.0,0,0.00,,,0.01,meteohub,2013-07-06 18:32:00,
2013-07-06 14:36:00,88.7,88.7,30.37,East,90,8.0,8.0,0,0.00,,,0.01,meteohub,2013-07-06 18:36:00,
2013-07-06 14:38:00,88.7,88.7,30.37,East,90,8.0,8.0,0,0.00,,,0.01,meteohub,2013-07-06 18:38:00,
2013-07-06 14:39:00,88.5,88.5,30.38,South,180,3.0,7.0,0,0.00,,,0.01,meteohub,2013-07-06 18:39:00,
2013-07-06 14:41:00,88.7,88.7,30.38,WSW,248,5.0,8.0,0,0.00,,,0.01,meteohub,2013-07-06 18:41:00,
2013-07-06 14:43:00,88.5,88.5,30.38,WSW,248,6.0,8.0,0,0.00,,,0.01,meteohub,2013-07-06 18:43:00,
2013-07-06 14:45:00,88.5,88.5,30.38,WSW,248,4.0,8.0,0,0.00,,,0.01,meteohub,2013-07-06 18:45:00,
2013-07-06 14:46:00,88.5,88.5,30.37,SE,135,4.0,8.0,0,0.00,,,0.01,meteohub,2013-07-06 18:46:00,
2013-07-06 14:49:00,89.2,89.2,30.38,South,180,4.0,8.0,0,0.00,,,0.01,meteohub,2013-07-06 18:49:00,
2013-07-06 14:52:00,89.4,89.4,30.37,SE,135,4.0,8.0,0,0.00,,,0.01,meteohub,2013-07-06 18:52:00,
2013-07-06 14:55:00,89.6,89.6,30.37,South,180,3.0,8.0,0,0.00,,,0.01,meteohub,2013-07-06 18:55:00,
2013-07-06 14:57:00,89.6,89.6,30.37,SE,135,3.0,7.0,0,0.00,,,0.01,meteohub,2013-07-06 18:57:00,
2013-07-06 15:00:00,89.6,89.6,30.37,SE,135,3.0,7.0,0,0.00,,,0.01,meteohub,2013-07-06 19:00:00,
2013-07-06 15:02:00,89.6,89.6,30.37,South,180,4.0,7.0,0,0.00,,,0.01,meteohub,2013-07-06 19:02:00,
2013-07-06 15:05:00,89.6,89.6,30.37,South,180,4.0,7.0,0,0.00,,,0.01,meteohub,2013-07-06 19:05:00,
2013-07-06 15:06:00,89.6,89.6,30.37,South,180,4.0,7.0,0,0.00,,,0.01,meteohub,2013-07-06 19:06:00,
2013-07-06 15:08:00,89.1,89.1,30.37,East,90,2.0,7.0,0,0.00,,,0.01,meteohub,2013-07-06 19:08:00,
2013-07-06 15:10:00,89.4,89.4,30.37,West,270,2.0,7.0,0,0.00,,,0.01,meteohub,2013-07-06 19:10:00,
2013-07-06 15:14:00,90.0,90.0,30.37,WSW,248,2.0,6.0,0,0.00,,,0.01,meteohub,2013-07-06 19:14:00,
2013-07-06 15:15:00,90.0,90.0,30.37,WSW,248,2.0,6.0,0,0.00,,,0.01,meteohub,2013-07-06 19:15:00,
2013-07-06 15:20:00,89.8,89.8,30.37,South,180,4.0,4.0,0,0.00,,,0.01,meteohub,2013-07-06 19:20:00,
2013-07-06 15:22:00,89.4,89.4,30.36,South,180,2.0,5.0,0,0.00,,,0.01,meteohub,2013-07-06 19:22:00,
2013-07-06 15:26:00,89.6,89.6,30.36,NE,45,2.0,5.0,0,0.00,,,0.01,meteohub,2013-07-06 19:26:00,
2013-07-06 15:27:00,89.6,89.6,30.36,East,90,4.0,5.0,0,0.00,,,0.01,meteohub,2013-07-06 19:27:00,
2013-07-06 15:29:00,89.6,89.6,30.36,West,270,2.0,5.0,0,0.00,,,0.01,meteohub,2013-07-06 19:29:00,
2013-07-06 15:31:00,90.3,90.3,30.36,South,180,2.0,5.0,0,0.00,,,0.01,meteohub,2013-07-06 19:31:00,
2013-07-06 15:32:00,90.3,90.3,30.36,South,180,2.0,5.0,0,0.00,,,0.01,meteohub,2013-07-06 19:32:00,
2013-07-06 15:35:00,90.7,90.7,30.36,North,0,4.0,4.0,0,0.00,,,0.01,meteohub,2013-07-06 19:35:00,
2013-07-06 15:37:00,90.3,90.3,30.36,South,180,2.0,4.0,0,0.00,,,0.01,meteohub,2013-07-06 19:37:00,
2013-07-06 15:40:00,90.5,90.5,30.36,East,90,4.0,4.0,0,0.00,,,0.01,meteohub,2013-07-06 19:40:00,
2013-07-06 15:43:00,90.3,90.3,30.36,North,0,3.0,4.0,0,0.00,,,0.01,meteohub,2013-07-06 19:43:00,
2013-07-06 15:48:00,91.0,91.0,30.35,East,90,2.0,4.0,0,0.00,,,0.01,meteohub,2013-07-06 19:48:00,
2013-07-06 15:50:00,91.4,91.4,30.35,South,180,2.0,4.0,0,0.00,,,0.01,meteohub,2013-07-06 19:50:00,
2013-07-06 15:53:00,91.2,91.2,30.36,SE,135,4.0,4.0,0,0.00,,,0.01,meteohub,2013-07-06 19:53:00,
2013-07-06 15:56:00,90.7,90.7,30.35,WSW,248,3.0,8.0,0,0.00,,,0.01,meteohub,2013-07-06 19:56:00,
2013-07-06 15:59:00,89.4,89.4,30.35,WSW,248,2.0,8.0,0,0.00,,,0.01,meteohub,2013-07-06 19:59:00,
2013-07-06 16:02:00,89.1,89.1,30.36,SE,135,2.0,8.0,0,0.00,,,0.01,meteohub,2013-07-06 20:02:00,
2013-07-06 16:06:00,89.1,89.1,30.35,SE,135,2.0,8.0,0,0.00,,,0.01,meteohub,2013-07-06 20:06:00,
2013-07-06 16:07:00,89.1,89.1,30.35,SE,135,2.0,8.0,0,0.00,,,0.01,meteohub,2013-07-06 20:07:00,
2013-07-06 16:11:00,88.3,88.3,30.35,SE,135,1.0,3.0,0,0.00,,,0.01,meteohub,2013-07-06 20:11:00,
2013-07-06 16:12:00,88.2,88.2,30.35,SE,135,1.0,3.0,0,0.00,,,0.01,meteohub,2013-07-06 20:12:00,
2013-07-06 16:14:00,88.0,88.0,30.35,South,180,0.0,3.0,0,0.00,,,0.01,meteohub,2013-07-06 20:14:00,
2013-07-06 16:17:00,87.4,87.4,30.35,South,180,1.0,2.0,0,0.00,,,0.01,meteohub,2013-07-06 20:17:00,
2013-07-06 16:21:00,86.5,86.5,30.35,South,180,1.0,2.0,0,0.00,,,0.01,meteohub,2013-07-06 20:21:00,
2013-07-06 16:22:00,86.4,86.4,30.35,NW,315,1.0,2.0,0,0.00,,,0.01,meteohub,2013-07-06 20:22:00,
2013-07-06 16:29:00,87.8,87.8,30.34,NE,45,1.0,1.0,0,0.00,,,0.01,meteohub,2013-07-06 20:29:00,
2013-07-06 16:35:00,87.6,87.6,30.34,East,90,1.0,2.0,0,0.00,,,0.01,meteohub,2013-07-06 20:35:00,
2013-07-06 16:36:00,87.6,87.6,30.34,East,90,1.0,2.0,0,0.00,,,0.01,meteohub,2013-07-06 20:36:00,
2013-07-06 16:38:00,87.1,87.1,30.34,South,180,1.0,2.0,0,0.00,,,0.01,meteohub,2013-07-06 20:38:00,
2013-07-06 16:40:00,86.5,86.5,30.34,WSW,248,1.0,2.0,0,0.00,,,0.01,meteohub,2013-07-06 20:40:00,
2013-07-06 16:43:00,85.5,85.5,30.33,WSW,248,1.0,2.0,0,0.00,,,0.01,meteohub,2013-07-06 20:43:00,
2013-07-06 16:45:00,85.3,85.3,30.34,WSW,248,1.0,2.0,0,0.00,,,0.01,meteohub,2013-07-06 20:45:00,
2013-07-06 16:46:00,84.9,84.9,30.33,SE,135,1.0,2.0,0,0.00,,,0.01,meteohub,2013-07-06 20:46:00,
2013-07-06 16:51:00,86.7,86.7,30.34,NE,45,2.0,2.0,0,0.00,,,0.01,meteohub,2013-07-06 20:51:00,
2013-07-06 16:52:00,87.1,87.1,30.34,NE,45,2.0,2.0,0,0.00,,,0.01,meteohub,2013-07-06 20:52:00,
2013-07-06 16:53:00,87.1,87.1,30.34,NE,45,2.0,2.0,0,0.00,,,0.01,meteohub,2013-07-06 20:53:00,
2013-07-06 16:58:00,89.1,89.1,30.33,WSW,248,2.0,2.0,0,0.00,,,0.01,meteohub,2013-07-06 20:58:00,
2013-07-06 17:01:00,89.4,89.4,30.33,South,180,2.0,4.0,0,0.00,,,0.01,meteohub,2013-07-06 21:01:00,
2013-07-06 17:03:00,89.4,89.4,30.33,South,180,2.0,4.0,0,0.00,,,0.01,meteohub,2013-07-06 21:03:00,
2013-07-06 17:10:00,92.3,92.3,30.33,South,180,4.0,4.0,0,0.00,,,0.01,meteohub,2013-07-06 21:10:00,
2013-07-06 17:13:00,93.0,93.0,30.33,SE,135,4.0,4.0,0,0.00,,,0.01,meteohub,2013-07-06 21:13:00,
2013-07-06 17:15:00,92.7,92.7,30.33,East,90,2.0,4.0,0,0.00,,,0.01,meteohub,2013-07-06 21:15:00,
2013-07-06 17:16:00,92.5,92.5,30.33,SE,135,2.0,4.0,0,0.00,,,0.01,meteohub,2013-07-06 21:16:00,
2013-07-06 17:19:00,91.2,91.2,30.33,North,0,2.0,4.0,0,0.00,,,0.01,meteohub,2013-07-06 21:19:00,
2013-07-06 17:21:00,90.1,90.1,30.33,WSW,248,2.0,4.0,0,0.00,,,0.01,meteohub,2013-07-06 21:21:00,
2013-07-06 17:24:00,88.5,88.5,30.33,WSW,248,2.0,4.0,0,0.00,,,0.01,meteohub,2013-07-06 21:24:00,
2013-07-06 17:27:00,86.9,86.9,30.32,East,90,2.0,4.0,0,0.00,,,0.01,meteohub,2013-07-06 21:27:00,
2013-07-06 17:32:00,85.3,85.3,30.32,WSW,248,1.0,4.0,0,0.00,,,0.01,meteohub,2013-07-06 21:32:00,
2013-07-06 17:35:00,84.9,84.9,30.33,South,180,2.0,4.0,0,0.00,,,0.01,meteohub,2013-07-06 21:35:00,
2013-07-06 17:37:00,84.4,84.4,30.32,WSW,248,0.0,4.0,0,0.00,,,0.01,meteohub,2013-07-06 21:37:00,
2013-07-06 17:38:00,84.4,84.4,30.32,WSW,248,0.0,4.0,0,0.00,,,0.01,meteohub,2013-07-06 21:38:00,
2013-07-06 17:42:00,83.8,83.8,30.33,South,180,0.0,2.0,0,0.00,,,0.01,meteohub,2013-07-06 21:42:00,
2013-07-06 17:43:00,83.8,83.8,30.32,South,180,0.0,2.0,0,0.00,,,0.01,meteohub,2013-07-06 21:43:00,
2013-07-06 17:47:00,83.8,83.8,30.32,South,180,0.0,2.0,0,0.00,,,0.01,meteohub,2013-07-06 21:47:00,
2013-07-06 17:50:00,83.5,83.5,30.32,NE,45,0.0,2.0,0,0.00,,,0.01,meteohub,2013-07-06 21:50:00,
2013-07-06 17:52:00,83.3,83.3,30.32,NE,45,0.0,2.0,0,0.00,,,0.01,meteohub,2013-07-06 21:52:00,
2013-07-06 17:56:00,83.1,83.1,30.32,South,180,0.0,1.0,0,0.00,,,0.01,meteohub,2013-07-06 21:56:00,
2013-07-06 17:57:00,83.1,83.1,30.32,West,270,0.0,1.0,0,0.00,,,0.01,meteohub,2013-07-06 21:57:00,
2013-07-06 17:58:00,83.1,83.1,30.32,West,270,0.0,1.0,0,0.00,,,0.01,meteohub,2013-07-06 21:58:00,
2013-07-06 18:02:00,82.8,82.8,30.32,South,180,0.0,1.0,0,0.00,,,0.01,meteohub,2013-07-06 22:02:00,
2013-07-06 18:03:00,82.8,82.8,30.32,South,180,0.0,1.0,0,0.00,,,0.01,meteohub,2013-07-06 22:03:00,
2013-07-06 18:08:00,82.8,82.8,30.32,South,180,0.0,0.0,0,0.00,,,0.01,meteohub,2013-07-06 22:08:00,
2013-07-06 18:12:00,82.6,82.6,30.32,South,180,0.0,0.0,0,0.00,,,0.01,meteohub,2013-07-06 22:12:00,
2013-07-06 18:13:00,82.9,82.9,30.31,South,180,0.0,0.0,0,0.00,,,0.01,meteohub,2013-07-06 22:13:00,
2013-07-06 18:17:00,86.0,86.0,30.32,North,0,0.0,0.0,0,0.00,,,0.01,meteohub,2013-07-06 22:17:00,
2013-07-06 18:18:00,87.3,87.3,30.32,East,90,0.0,0.0,0,0.00,,,0.01,meteohub,2013-07-06 22:18:00,
2013-07-06 18:19:00,88.3,88.3,30.31,East,90,0.0,0.0,0,0.00,,,0.01,meteohub,2013-07-06 22:19:00,
2013-07-06 18:22:00,89.8,89.8,30.32,East,90,0.0,0.0,0,0.00,,,0.01,meteohub,2013-07-06 22:22:00,
2013-07-06 18:24:00,91.0,91.0,30.31,WSW,248,0.0,0.0,0,0.00,,,0.01,meteohub,2013-07-06 22:24:00,
2013-07-06 18:27:00,92.3,92.3,30.31,WSW,248,2.0,0.0,0,0.00,,,0.01,meteohub,2013-07-06 22:27:00,
2013-07-06 18:28:00,92.3,92.3,30.31,WSW,248,2.0,0.0,0,0.00,,,0.01,meteohub,2013-07-06 22:28:00,
2013-07-06 18:29:00,91.4,91.4,30.31,East,90,2.0,0.0,0,0.00,,,0.01,meteohub,2013-07-06 22:29:00,
2013-07-06 18:32:00,89.8,89.8,30.32,WSW,248,2.0,2.0,0,0.00,,,0.01,meteohub,2013-07-06 22:32:00,
2013-07-06 18:33:00,89.4,89.4,30.32,North,0,2.0,2.0,0,0.00,,,0.01,meteohub,2013-07-06 22:33:00,
2013-07-06 18:35:00,88.9,88.9,30.31,SE,135,0.0,2.0,0,0.00,,,0.01,meteohub,2013-07-06 22:35:00,
2013-07-06 18:38:00,88.3,88.3,30.31,WSW,248,0.0,2.0,0,0.00,,,0.01,meteohub,2013-07-06 22:38:00,
2013-07-06 18:39:00,88.0,88.0,30.31,South,180,1.0,2.0,0,0.00,,,0.01,meteohub,2013-07-06 22:39:00,
2013-07-06 18:42:00,87.3,87.3,30.31,WSW,248,0.0,2.0,0,0.00,,,0.01,meteohub,2013-07-06 22:42:00,
2013-07-06 18:44:00,86.7,86.7,30.31,WSW,248,0.0,2.0,0,0.00,,,0.01,meteohub,2013-07-06 22:44:00,
2013-07-06 18:46:00,86.0,86.0,30.32,WSW,248,0.0,2.0,0,0.00,,,0.01,meteohub,2013-07-06 22:46:00,
2013-07-06 18:48:00,85.5,85.5,30.32,WSW,248,0.0,2.0,0,0.00,,,0.01,meteohub,2013-07-06 22:48:00,
2013-07-06 18:50:00,84.7,84.7,30.32,WSW,248,0.0,2.0,0,0.00,,,0.01,meteohub,2013-07-06 22:50:00,
2013-07-06 18:54:00,85.1,85.1,30.31,North,0,1.0,2.0,0,0.00,,,0.01,meteohub,2013-07-06 22:54:00,
2013-07-06 18:56:00,85.5,85.5,30.31,West,270,1.0,1.0,0,0.00,,,0.01,meteohub,2013-07-06 22:56:00,
2013-07-06 19:00:00,87.4,87.4,30.32,South,180,0.0,1.0,0,0.00,,,0.01,meteohub,2013-07-06 23:00:00,
2013-07-06 19:01:00,87.4,87.4,30.32,South,180,0.0,1.0,0,0.00,,,0.01,meteohub,2013-07-06 23:01:00,
2013-07-06 19:06:00,87.6,87.6,30.31,South,180,0.0,1.0,0,0.00,,,0.01,meteohub,2013-07-06 23:06:00,
2013-07-06 19:07:00,87.8,87.8,30.32,West,270,2.0,2.0,0,0.00,,,0.01,meteohub,2013-07-06 23:07:00,
2013-07-06 19:12:00,87.6,87.6,30.32,NE,45,0.0,2.0,0,0.00,,,0.01,meteohub,2013-07-06 23:12:00,
2013-07-06 19:17:00,87.8,87.8,30.32,SE,135,0.0,2.0,0,0.00,,,0.01,meteohub,2013-07-06 23:17:00,
2013-07-06 19:18:00,88.0,88.0,30.32,South,180,0.0,2.0,0,0.00,,,0.01,meteohub,2013-07-06 23:18:00,
2013-07-06 19:19:00,88.2,88.2,30.32,WSW,248,1.0,2.0,0,0.00,,,0.01,meteohub,2013-07-06 23:19:00,
2013-07-06 19:23:00,87.1,87.1,30.32,SE,135,7.0,7.0,0,0.00,,,0.01,meteohub,2013-07-06 23:23:00,
2013-07-06 19:24:00,86.0,86.0,30.32,East,90,10.0,10.0,0,0.00,,,0.01,meteohub,2013-07-06 23:24:00,
2013-07-06 19:30:00,81.0,81.0,30.32,SE,135,4.0,7.0,0,0.00,,,0.01,meteohub,2013-07-06 23:30:00,
2013-07-06 19:32:00,79.5,79.5,30.33,South,180,4.0,12.0,0,0.00,,,0.01,meteohub,2013-07-06 23:32:00,
2013-07-06 19:35:00,78.1,78.1,30.33,SE,135,6.0,12.0,0,0.00,,,0.01,meteohub,2013-07-06 23:35:00,
2013-07-06 19:36:00,77.4,77.4,30.33,South,180,4.0,12.0,0,0.01,,,0.02,meteohub,2013-07-06 23:36:00,
2013-07-06 19:37:00,77.0,77.0,30.33,South,180,5.0,12.0,0,0.01,,,0.02,meteohub,2013-07-06 23:37:00,
2013-07-06 19:41:00,75.2,75.2,30.32,East,90,2.0,12.0,0,0.13,,,0.14,meteohub,2013-07-06 23:41:00,
2013-07-06 19:44:00,74.5,74.5,30.32,NE,45,1.0,12.0,0,0.13,,,0.14,meteohub,2013-07-06 23:44:00,
2013-07-06 19:46:00,74.1,14.0,30.32,NE,45,0.0,6.0,10,0.15,,,0.17,meteohub,2013-07-06 23:46:00,
2013-07-06 19:49:00,74.1,18.3,30.32,NE,45,0.0,6.0,12,0.15,,,0.17,meteohub,2013-07-06 23:49:00,
2013-07-06 19:52:00,74.3,22.1,30.32,WSW,248,1.0,5.0,14,0.15,,,0.17,meteohub,2013-07-06 23:52:00,
2013-07-06 19:54:00,74.3,23.7,30.32,East,90,0.0,5.0,15,0.15,,,0.17,meteohub,2013-07-06 23:54:00,
2013-07-06 19:55:00,74.5,25.3,30.32,East,90,0.0,5.0,16,0.15,,,0.17,meteohub,2013-07-06 23:55:00,
2013-07-06 20:00:00,74.5,25.3,30.32,WSW,248,1.0,2.0,16,0.15,,,0.17,meteohub,2013-07-07 00:00:00,
2013-07-06 20:01:00,74.5,25.3,30.32,West,270,2.0,2.0,16,0.18,,,0.19,meteohub,2013-07-07 00:01:00,
2013-07-06 20:05:00,74.5,26.8,30.33,South,180,0.0,2.0,17,0.20,,,0.19,meteohub,2013-07-07 00:05:00,
2013-07-06 20:10:00,74.3,29.3,30.32,East,90,2.0,2.0,19,0.20,,,0.19,meteohub,2013-07-07 00:10:00,
2013-07-06 20:11:00,74.1,29.3,30.32,South,180,2.0,2.0,19,0.22,,,0.24,meteohub,2013-07-07 00:11:00,
2013-07-06 20:12:00,73.9,30.4,30.32,North,0,3.0,3.0,20,0.22,,,0.24,meteohub,2013-07-07 00:12:00,
2013-07-06 20:15:00,73.8,31.5,30.33,South,180,2.0,2.0,21,0.22,,,0.24,meteohub,2013-07-07 00:15:00,
2013-07-06 20:17:00,73.4,33.3,30.33,WSW,248,3.0,4.0,23,0.39,,,0.40,meteohub,2013-07-07 00:17:00,
2013-07-06 20:18:00,73.4,34.3,30.33,South,180,2.0,4.0,24,0.39,,,0.40,meteohub,2013-07-07 00:18:00,
2013-07-06 20:20:00,73.2,34.3,30.32,NE,45,4.0,4.0,24,0.41,,,0.43,meteohub,2013-07-07 00:20:00,
2013-07-06 20:24:00,72.9,35.1,30.32,East,90,4.0,4.0,25,0.41,,,0.43,meteohub,2013-07-07 00:24:00,
2013-07-06 20:26:00,72.7,34.9,30.32,East,90,3.0,6.0,25,0.58,,,0.59,meteohub,2013-07-07 00:26:00,
2013-07-06 20:27:00,72.5,35.6,30.32,East,90,3.0,6.0,26,0.58,,,0.59,meteohub,2013-07-07 00:27:00,
2013-07-06 20:29:00,72.3,34.5,30.31,South,180,2.0,6.0,25,0.58,,,0.59,meteohub,2013-07-07 00:29:00,
2013-07-06 20:33:00,72.0,35.2,30.32,WSW,248,4.0,6.0,26,0.61,,,0.64,meteohub,2013-07-07 00:33:00,
2013-07-06 20:34:00,72.0,35.2,30.32,NE,45,2.0,6.0,26,0.61,,,0.64,meteohub,2013-07-07 00:34:00,
2013-07-06 20:35:00,72.0,35.2,30.32,WSW,248,2.0,6.0,26,0.61,,,0.64,meteohub,2013-07-07 00:35:00,
2013-07-06 20:39:00,71.8,35.1,30.31,North,0,2.0,6.0,26,0.59,,,0.64,meteohub,2013-07-07 00:39:00,
2013-07-06 20:41:00,71.6,34.9,30.32,NW,315,0.0,4.0,26,0.50,,,0.66,meteohub,2013-07-07 00:41:00,
2013-07-06 20:44:00,71.2,35.6,30.32,WSW,248,2.0,4.0,27,0.50,,,0.66,meteohub,2013-07-07 00:44:00,
2013-07-06 20:49:00,71.1,35.4,30.32,NE,45,3.0,4.0,27,0.52,,,0.69,meteohub,2013-07-07 00:49:00,
2013-07-06 20:50:00,71.1,35.4,30.32,NE,45,3.0,4.0,27,0.52,,,0.73,meteohub,2013-07-07 00:50:00,
2013-07-06 20:52:00,71.1,36.3,30.31,North,0,2.0,2.0,28,0.57,,,0.73,meteohub,2013-07-07 00:52:00,
2013-07-06 20:55:00,71.1,37.2,30.32,North,0,2.0,3.0,29,0.64,,,0.80,meteohub,2013-07-07 00:55:00,
2013-07-06 20:56:00,70.9,37.0,30.31,North,0,2.0,3.0,29,0.64,,,0.80,meteohub,2013-07-07 00:56:00,
2013-07-06 20:58:00,70.9,37.0,30.31,NW,315,2.0,3.0,29,0.64,,,0.80,meteohub,2013-07-07 00:58:00,
2013-07-06 21:01:00,70.7,37.8,30.32,WSW,248,4.0,4.0,30,0.64,,,0.83,meteohub,2013-07-07 01:01:00,
2013-07-06 21:03:00,70.7,37.8,30.32,WSW,248,0.0,4.0,30,0.64,,,0.83,meteohub,2013-07-07 01:03:00,
2013-07-06 21:06:00,70.9,38.7,30.32,East,90,4.0,4.0,31,0.61,,,0.83,meteohub,2013-07-07 01:06:00,
2013-07-06 21:09:00,70.9,38.7,30.32,East,90,1.0,4.0,31,0.61,,,0.83,meteohub,2013-07-07 01:09:00,
2013-07-06 21:11:00,70.7,38.7,30.32,East,90,1.0,4.0,31,0.54,,,0.85,meteohub,2013-07-07 01:11:00,
2013-07-06 21:12:00,70.9,38.7,30.32,East,90,0.0,4.0,31,0.54,,,0.85,meteohub,2013-07-07 01:12:00,
2013-07-06 21:15:00,70.7,38.7,30.32,East,90,0.0,4.0,31,0.43,,,0.85,meteohub,2013-07-07 01:15:00,
2013-07-06 21:18:00,70.7,38.7,30.32,North,0,0.0,4.0,31,0.43,,,0.85,meteohub,2013-07-07 01:18:00,
2013-07-06 21:19:00,70.7,38.7,30.32,North,0,0.0,4.0,31,0.43,,,0.85,meteohub,2013-07-07 01:19:00,
2013-07-06 21:20:00,70.7,38.7,30.32,NE,45,0.0,4.0,31,0.33,,,0.85,meteohub,2013-07-07 01:20:00,
2013-07-06 21:24:00,70.7,38.7,30.32,NE,45,0.0,4.0,31,0.33,,,0.85,meteohub,2013-07-07 01:24:00,
2013-07-06 21:25:00,70.9,38.7,30.32,NE,45,0.0,1.0,31,0.24,,,0.85,meteohub,2013-07-07 01:25:00,
2013-07-06 21:26:00,70.9,38.7,30.32,NE,45,0.0,1.0,31,0.24,,,0.85,meteohub,2013-07-07 01:26:00,
2013-07-06 21:29:00,70.9,38.7,30.33,NE,45,0.0,1.0,31,0.24,,,0.85,meteohub,2013-07-07 01:29:00,
2013-07-06 21:31:00,70.9,38.7,30.33,NE,45,0.0,0.0,31,0.21,,,0.85,meteohub,2013-07-07 01:31:00,
2013-07-06 21:32:00,71.1,38.8,30.33,NE,45,0.0,0.0,31,0.21,,,0.85,meteohub,2013-07-07 01:32:00,
2013-07-06 21:35:00,71.1,38.8,30.33,NE,45,0.0,0.0,31,0.21,,,0.85,meteohub,2013-07-07 01:35:00,
2013-07-06 21:37:00,71.1,38.8,30.33,NE,45,0.0,0.0,31,0.21,,,0.85,meteohub,2013-07-07 01:37:00,
2013-07-06 21:38:00,71.1,38.8,30.33,NE,45,0.0,0.0,31,0.21,,,0.85,meteohub,2013-07-07 01:38:00,
2013-07-06 21:41:00,71.1,38.8,30.33,NE,45,0.0,0.0,31,0.19,,,0.85,meteohub,2013-07-07 01:41:00,
2013-07-06 21:42:00,71.1,38.8,30.33,NE,45,0.0,0.0,31,0.19,,,0.85,meteohub,2013-07-07 01:42:00,
2013-07-06 21:44:00,71.1,39.7,30.33,North,0,0.0,0.0,32,0.19,,,0.85,meteohub,2013-07-07 01:44:00,
2013-07-06 21:47:00,71.2,39.9,30.33,East,90,0.0,0.0,32,0.17,,,0.85,meteohub,2013-07-07 01:47:00,
2013-07-06 21:50:00,71.2,39.9,30.33,East,90,0.0,0.0,32,0.09,,,0.85,meteohub,2013-07-07 01:50:00,
2013-07-06 21:54:00,71.2,39.9,30.34,East,90,0.0,0.0,32,0.09,,,0.85,meteohub,2013-07-07 01:54:00,
2013-07-06 21:57:00,71.2,39.9,30.35,West,270,3.0,0.0,32,0.02,,,0.85,meteohub,2013-07-07 01:57:00,
2013-07-06 21:59:00,71.2,39.9,30.35,West,270,1.0,0.0,32,0.02,,,0.85,meteohub,2013-07-07 01:59:00,
2013-07-06 22:00:00,71.2,39.9,30.35,WSW,248,3.0,0.0,32,0.02,,,0.85,meteohub,2013-07-07 02:00:00,
2013-07-06 22:04:00,71.2,40.6,30.35,South,180,4.0,4.0,33,0.07,,,0.90,meteohub,2013-07-07 02:04:00,
2013-07-06 22:05:00,71.2,40.6,30.34,North,0,2.0,6.0,33,0.31,,,1.13,meteohub,2013-07-07 02:05:00,
2013-07-06 22:06:00,71.2,40.6,30.34,NE,45,2.0,6.0,33,0.31,,,1.13,meteohub,2013-07-07 02:06:00,
2013-07-06 22:09:00,71.2,40.6,30.34,NE,45,2.0,6.0,33,0.31,,,1.13,meteohub,2013-07-07 02:09:00,
2013-07-06 22:12:00,71.2,41.4,30.34,NE,45,3.0,6.0,34,0.31,,,1.16,meteohub,2013-07-07 02:12:00,
2013-07-06 22:16:00,71.1,41.4,30.34,SE,135,1.0,6.0,34,0.38,,,1.23,meteohub,2013-07-07 02:16:00,
2013-07-06 22:18:00,71.1,41.4,30.34,South,180,0.0,6.0,34,0.38,,,1.23,meteohub,2013-07-07 02:18:00,
2013-07-06 22:19:00,71.1,41.4,30.34,SE,135,0.0,6.0,34,0.38,,,1.23,meteohub,2013-07-07 02:19:00,
2013-07-06 22:21:00,71.1,41.4,30.34,SE,135,3.0,3.0,34,0.38,,,1.23,meteohub,2013-07-07 02:21:00,
2013-07-06 22:25:00,71.2,41.4,30.34,SE,135,1.0,3.0,34,0.38,,,1.23,meteohub,2013-07-07 02:25:00,
2013-07-06 22:28:00,71.2,41.4,30.35,South,180,0.0,3.0,34,0.38,,,1.23,meteohub,2013-07-07 02:28:00,
2013-07-06 22:31:00,71.2,41.4,30.34,South,180,0.0,3.0,34,0.38,,,1.23,meteohub,2013-07-07 02:31:00,
2013-07-06 22:36:00,71.1,41.4,30.34,South,180,0.0,3.0,34,0.38,,,1.23,meteohub,2013-07-07 02:36:00,
2013-07-06 22:37:00,71.1,41.4,30.34,South,180,0.0,3.0,34,0.38,,,1.23,meteohub,2013-07-07 02:37:00,
2013-07-06 22:41:00,71.1,41.4,30.34,South,180,0.0,1.0,34,0.38,,,1.23,meteohub,2013-07-07 02:41:00,
2013-07-06 22:42:00,71.1,41.4,30.34,South,180,0.0,1.0,34,0.38,,,1.23,meteohub,2013-07-07 02:42:00,
2013-07-06 22:46:00,71.1,41.4,30.34,South,180,0.0,0.0,34,0.38,,,1.23,meteohub,2013-07-07 02:46:00,
2013-07-06 22:48:00,70.9,41.2,30.35,South,180,0.0,0.0,34,0.38,,,1.23,meteohub,2013-07-07 02:48:00,
2013-07-06 22:49:00,70.9,41.2,30.35,South,180,0.0,0.0,34,0.38,,,1.23,meteohub,2013-07-07 02:49:00,
2013-07-06 22:51:00,71.1,42.1,30.35,South,180,0.0,0.0,35,0.38,,,1.23,meteohub,2013-07-07 02:51:00,
2013-07-06 22:53:00,71.1,42.1,30.34,South,180,2.0,0.0,35,0.38,,,1.23,meteohub,2013-07-07 02:53:00,
2013-07-06 22:56:00,71.2,42.3,30.35,West,270,1.0,2.0,35,0.38,,,1.23,meteohub,2013-07-07 02:56:00,
2013-07-06 22:57:00,71.1,42.1,30.34,South,180,1.0,2.0,35,0.38,,,1.23,meteohub,2013-07-07 02:57:00,
2013-07-06 22:58:00,71.2,42.3,30.35,South,180,0.0,2.0,35,0.38,,,1.23,meteohub,2013-07-07 02:58:00,
2013-07-06 23:02:00,71.2,42.3,30.34,South,180,0.0,2.0,35,0.24,,,1.23,meteohub,2013-07-07 03:02:00,
2013-07-06 23:03:00,71.2,42.3,30.34,South,180,0.0,2.0,35,0.24,,,1.23,meteohub,2013-07-07 03:03:00,
2013-07-06 23:04:00,71.2,42.3,30.35,South,180,0.0,2.0,35,0.24,,,1.23,meteohub,2013-07-07 03:04:00,
2013-07-06 23:07:00,71.1,42.1,30.34,South,180,0.0,2.0,35,0.08,,,1.23,meteohub,2013-07-07 03:07:00,
2013-07-06 23:09:00,71.1,42.1,30.34,SE,135,0.0,2.0,35,0.08,,,1.23,meteohub,2013-07-07 03:09:00,
2013-07-06 23:11:00,71.1,42.1,30.34,South,180,0.0,2.0,35,0.05,,,1.23,meteohub,2013-07-07 03:11:00,
2013-07-06 23:12:00,71.1,42.1,30.35,South,180,0.0,2.0,35,0.05,,,1.23,meteohub,2013-07-07 03:12:00,
2013-07-06 23:15:00,71.1,42.1,30.35,South,180,0.0,2.0,35,0.01,,,1.24,meteohub,2013-07-07 03:15:00,
2013-07-06 23:17:00,71.1,42.1,30.34,South,180,0.0,2.0,35,0.01,,,1.24,meteohub,2013-07-07 03:17:00,
2013-07-06 23:19:00,71.1,42.1,30.35,South,180,0.0,2.0,35,0.01,,,1.24,meteohub,2013-07-07 03:19:00,
2013-07-06 23:20:00,71.1,42.1,30.34,South,180,0.0,2.0,35,0.01,,,1.24,meteohub,2013-07-07 03:20:00,
2013-07-06 23:24:00,71.1,42.1,30.34,East,90,0.0,0.0,35,0.01,,,1.24,meteohub,2013-07-07 03:24:00,
2013-07-06 23:26:00,71.1,42.1,30.34,South,180,0.0,0.0,35,0.01,,,1.24,meteohub,2013-07-07 03:26:00,
2013-07-06 23:29:00,71.1,42.1,30.34,South,180,0.0,0.0,35,0.01,,,1.24,meteohub,2013-07-07 03:29:00,
2013-07-06 23:30:00,71.1,42.1,30.34,South,180,0.0,0.0,35,0.01,,,1.24,meteohub,2013-07-07 03:30:00,
2013-07-06 23:32:00,71.1,42.1,30.35,South,180,0.0,0.0,35,0.01,,,1.24,meteohub,2013-07-07 03:32:00,
2013-07-06 23:35:00,70.9,42.6,30.34,East,90,0.0,0.0,36,0.01,,,1.24,meteohub,2013-07-07 03:35:00,
2013-07-06 23:37:00,70.9,42.6,30.34,East,90,0.0,0.0,36,0.01,,,1.24,meteohub,2013-07-07 03:37:00,
2013-07-06 23:38:00,70.9,42.6,30.34,East,90,0.0,0.0,36,0.01,,,1.24,meteohub,2013-07-07 03:38:00,
2013-07-06 23:42:00,70.9,42.6,30.35,East,90,0.0,0.0,36,0.01,,,1.24,meteohub,2013-07-07 03:42:00,
2013-07-06 23:43:00,70.7,42.4,30.35,East,90,0.0,0.0,36,0.01,,,1.24,meteohub,2013-07-07 03:43:00,
2013-07-06 23:47:00,70.7,42.4,30.35,South,180,0.0,0.0,36,0.01,,,1.24,meteohub,2013-07-07 03:47:00,
2013-07-06 23:48:00,70.9,42.6,30.35,South,180,0.0,0.0,36,0.01,,,1.24,meteohub,2013-07-07 03:48:00,
2013-07-06 23:50:00,70.7,42.4,30.35,WSW,248,0.0,0.0,36,0.01,,,1.24,meteohub,2013-07-07 03:50:00,
2013-07-06 23:53:00,70.9,42.6,30.35,East,90,0.0,0.0,36,0.01,,,1.24,meteohub,2013-07-07 03:53:00,
2013-07-06 23:56:00,70.7,42.4,30.35,South,180,0.0,0.0,36,0.01,,,1.24,meteohub,2013-07-07 03:56:00,
2013-07-06 23:58:00,70.7,42.4,30.35,East,90,0.0,0.0,36,0.01,,,1.24,meteohub,2013-07-07 03:58:00,
2013-07-06 23:59:00,70.9,42.6,30.35,East,90,0.0,0.0,36,0.01,,,1.24,meteohub,2013-07-07 03:59:00,